Wetterdaten: Donnerstag, 09.04.2026
Datum Zeit Temp. Aussen Temp. o. S. Temp +5cm Feuchte Auss Luftdruck Regen Sonnenschein Solar Windböen Empfang
09.04.2026 00:00 11,6 °C 9,4 °C 6,1 °C 65 % 1022,8 hPa 0,0 l/m² 0 min 0 W/m² 0,0 km/h (0 Bft) 97,87 %
09.04.2026 00:02 11,5 °C 9,4 °C 6,1 °C 65 % 1022,8 hPa 0,0 l/m² 0 min 0 W/m² 0,0 km/h (0 Bft) 95,35 %
09.04.2026 00:04 11,4 °C 9,4 °C 6,1 °C 65 % 1022,9 hPa 0,0 l/m² 0 min 0 W/m² 0,0 km/h (0 Bft) 97,87 %
09.04.2026 00:08 11,4 °C 9,4 °C 6,1 °C 65 % 1022,9 hPa 0,0 l/m² 0 min 0 W/m² 0,0 km/h (0 Bft) 100,00 %
09.04.2026 00:10 11,3 °C 9,4 °C 6,1 °C 65 % 1022,9 hPa 0,0 l/m² 0 min 0 W/m² 0,0 km/h (0 Bft) 97,87 %
09.04.2026 00:12 11,3 °C 9,4 °C 6,1 °C 66 % 1022,9 hPa 0,0 l/m² 0 min 0 W/m² 0,0 km/h (0 Bft) 100,00 %
09.04.2026 00:14 11,3 °C 9,4 °C 6,1 °C 66 % 1022,8 hPa 0,0 l/m² 0 min 0 W/m² 3,2 km/h (1 Bft) 100,00 %
09.04.2026 00:16 11,2 °C 9,4 °C 5,6 °C 66 % 1022,8 hPa 0,0 l/m² 0 min 0 W/m² 3,2 km/h (1 Bft) 100,00 %
09.04.2026 00:18 11,2 °C 9,4 °C 5,6 °C 66 % 1022,9 hPa 0,0 l/m² 0 min 0 W/m² 0,0 km/h (0 Bft) 100,00 %
09.04.2026 00:20 11,1 °C 9,4 °C 5,6 °C 67 % 1022,9 hPa 0,0 l/m² 0 min 0 W/m² 0,0 km/h (0 Bft) 100,00 %
09.04.2026 00:22 11,1 °C 9,4 °C 5,6 °C 66 % 1022,8 hPa 0,0 l/m² 0 min 0 W/m² 0,0 km/h (0 Bft) 100,00 %
09.04.2026 00:24 11,1 °C 9,4 °C 5,6 °C 67 % 1022,8 hPa 0,0 l/m² 0 min 0 W/m² 0,0 km/h (0 Bft) 97,87 %
09.04.2026 00:26 11,0 °C 9,4 °C 5,6 °C 66 % 1022,8 hPa 0,0 l/m² 0 min 0 W/m² 0,0 km/h (0 Bft) 97,87 %
09.04.2026 00:28 10,9 °C 9,4 °C 5,6 °C 66 % 1022,8 hPa 0,0 l/m² 0 min 0 W/m² 0,0 km/h (0 Bft) 97,83 %
09.04.2026 00:30 10,9 °C 9,4 °C 5,6 °C 66 % 1022,8 hPa 0,0 l/m² 0 min 0 W/m² 0,0 km/h (0 Bft) 100,00 %
09.04.2026 00:32 10,9 °C 9,4 °C 5,6 °C 66 % 1022,8 hPa 0,0 l/m² 0 min 0 W/m² 0,0 km/h (0 Bft) 97,87 %
09.04.2026 00:34 10,8 °C 9,4 °C 5,6 °C 66 % 1022,8 hPa 0,0 l/m² 0 min 0 W/m² 0,0 km/h (0 Bft) 97,87 %
09.04.2026 00:36 10,8 °C 9,4 °C 5,6 °C 66 % 1022,8 hPa 0,0 l/m² 0 min 0 W/m² 0,0 km/h (0 Bft) 96,00 %
09.04.2026 00:38 10,8 °C 9,4 °C 5,6 °C 66 % 1022,8 hPa 0,0 l/m² 0 min 0 W/m² 0,0 km/h (0 Bft) 97,87 %
09.04.2026 00:40 10,7 °C 8,9 °C 5,6 °C 66 % 1022,8 hPa 0,0 l/m² 0 min 0 W/m² 0,0 km/h (0 Bft) 97,87 %
09.04.2026 00:42 10,7 °C 8,9 °C 5,6 °C 66 % 1022,8 hPa 0,0 l/m² 0 min 0 W/m² 0,0 km/h (0 Bft) 97,83 %
09.04.2026 00:44 10,7 °C 8,9 °C 5,6 °C 67 % 1022,7 hPa 0,0 l/m² 0 min 0 W/m² 0,0 km/h (0 Bft) 97,87 %
09.04.2026 00:46 10,6 °C 8,9 °C 5,6 °C 67 % 1022,7 hPa 0,0 l/m² 0 min 0 W/m² 0,0 km/h (0 Bft) 91,49 %
09.04.2026 00:48 10,6 °C 8,9 °C 5,6 °C 67 % 1022,7 hPa 0,0 l/m² 0 min 0 W/m² 0,0 km/h (0 Bft) 97,87 %
09.04.2026 00:50 10,6 °C 8,9 °C 5,6 °C 68 % 1022,7 hPa 0,0 l/m² 0 min 0 W/m² 0,0 km/h (0 Bft) 100,00 %
09.04.2026 00:52 10,5 °C 8,9 °C 5,6 °C 68 % 1022,6 hPa 0,0 l/m² 0 min 0 W/m² 0,0 km/h (0 Bft) 100,00 %
09.04.2026 00:54 10,5 °C 8,9 °C 5,6 °C 68 % 1022,6 hPa 0,0 l/m² 0 min 0 W/m² 0,0 km/h (0 Bft) 97,87 %
09.04.2026 00:56 10,4 °C 8,9 °C 5,6 °C 68 % 1022,6 hPa 0,0 l/m² 0 min 0 W/m² 0,0 km/h (0 Bft) 93,62 %
09.04.2026 00:58 10,4 °C 8,9 °C 5,6 °C 68 % 1022,6 hPa 0,0 l/m² 0 min 0 W/m² 0,0 km/h (0 Bft) 95,74 %
09.04.2026 01:00 10,3 °C 8,3 °C 5,6 °C 68 % 1022,6 hPa 0,0 l/m² 0 min 0 W/m² 0,0 km/h (0 Bft) 97,87 %
09.04.2026 01:02 10,3 °C 8,3 °C 5,6 °C 68 % 1022,6 hPa 0,0 l/m² 0 min 0 W/m² 0,0 km/h (0 Bft) 97,87 %
09.04.2026 01:04 10,3 °C 8,9 °C 5,6 °C 68 % 1022,6 hPa 0,0 l/m² 0 min 0 W/m² 0,0 km/h (0 Bft) 97,87 %
09.04.2026 01:06 10,3 °C 8,3 °C 5,0 °C 68 % 1022,6 hPa 0,0 l/m² 0 min 0 W/m² 0,0 km/h (0 Bft) 97,83 %
09.04.2026 01:08 10,2 °C 8,3 °C 5,0 °C 68 % 1022,6 hPa 0,0 l/m² 0 min 0 W/m² 0,0 km/h (0 Bft) 97,87 %
09.04.2026 01:10 10,2 °C 8,3 °C 5,0 °C 69 % 1022,7 hPa 0,0 l/m² 0 min 0 W/m² 0,0 km/h (0 Bft) 94,00 %
09.04.2026 01:12 10,2 °C 8,3 °C 5,0 °C 69 % 1022,7 hPa 0,0 l/m² 0 min 0 W/m² 0,0 km/h (0 Bft) 97,87 %
09.04.2026 01:14 10,1 °C 8,3 °C 5,0 °C 69 % 1022,6 hPa 0,0 l/m² 0 min 0 W/m² 0,0 km/h (0 Bft) 97,87 %
09.04.2026 01:16 10,1 °C 8,3 °C 5,0 °C 69 % 1022,7 hPa 0,0 l/m² 0 min 0 W/m² 0,0 km/h (0 Bft) 97,87 %
09.04.2026 01:18 10,1 °C 8,3 °C 5,0 °C 69 % 1022,7 hPa 0,0 l/m² 0 min 0 W/m² 0,0 km/h (0 Bft) 95,74 %
09.04.2026 01:20 10,1 °C 8,3 °C 5,0 °C 69 % 1022,7 hPa 0,0 l/m² 0 min 0 W/m² 0,0 km/h (0 Bft) 95,92 %
09.04.2026 01:22 10,0 °C 8,3 °C 5,0 °C 69 % 1022,7 hPa 0,0 l/m² 0 min 0 W/m² 0,0 km/h (0 Bft) 95,74 %
09.04.2026 01:24 9,9 °C 8,3 °C 5,0 °C 69 % 1022,7 hPa 0,0 l/m² 0 min 0 W/m² 0,0 km/h (0 Bft) 91,49 %
09.04.2026 01:26 9,9 °C 8,3 °C 5,0 °C 69 % 1022,7 hPa 0,0 l/m² 0 min 0 W/m² 0,0 km/h (0 Bft) 95,74 %
09.04.2026 01:28 9,9 °C 8,3 °C 5,0 °C 70 % 1022,7 hPa 0,0 l/m² 0 min 0 W/m² 0,0 km/h (0 Bft) 96,97 %
09.04.2026 01:30 9,8 °C 7,8 °C 5,0 °C 70 % 1022,7 hPa 0,0 l/m² 0 min 0 W/m² 0,0 km/h (0 Bft) 95,00 %
09.04.2026 01:32 9,8 °C 7,8 °C 5,0 °C 70 % 1022,7 hPa 0,0 l/m² 0 min 0 W/m² 0,0 km/h (0 Bft) 93,62 %
09.04.2026 01:34 9,8 °C 7,8 °C 5,0 °C 70 % 1022,6 hPa 0,0 l/m² 0 min 0 W/m² 0,0 km/h (0 Bft) 95,74 %
09.04.2026 01:36 9,8 °C 7,8 °C 5,0 °C 70 % 1022,6 hPa 0,0 l/m² 0 min 0 W/m² 0,0 km/h (0 Bft) 93,48 %
09.04.2026 01:38 9,7 °C 7,8 °C 5,0 °C 70 % 1022,6 hPa 0,0 l/m² 0 min 0 W/m² 0,0 km/h (0 Bft) 95,74 %
09.04.2026 01:40 9,7 °C 8,3 °C 5,0 °C 70 % 1022,6 hPa 0,0 l/m² 0 min 0 W/m² 0,0 km/h (0 Bft) 95,74 %
09.04.2026 01:42 9,6 °C 8,3 °C 5,0 °C 70 % 1022,6 hPa 0,0 l/m² 0 min 0 W/m² 0,0 km/h (0 Bft) 93,62 %
09.04.2026 01:44 9,6 °C 8,3 °C 5,0 °C 69 % 1022,6 hPa 0,0 l/m² 0 min 0 W/m² 0,0 km/h (0 Bft) 92,86 %
09.04.2026 01:46 9,6 °C 8,3 °C 5,0 °C 69 % 1022,6 hPa 0,0 l/m² 0 min 0 W/m² 3,2 km/h (1 Bft) 97,87 %
09.04.2026 01:48 9,5 °C 8,3 °C 5,0 °C 69 % 1022,6 hPa 0,0 l/m² 0 min 0 W/m² 0,0 km/h (0 Bft) 97,87 %
09.04.2026 01:50 9,5 °C 8,9 °C 5,0 °C 69 % 1022,5 hPa 0,0 l/m² 0 min 0 W/m² 0,0 km/h (0 Bft) 95,74 %
09.04.2026 01:52 9,5 °C 8,9 °C 5,0 °C 69 % 1022,5 hPa 0,0 l/m² 0 min 0 W/m² 3,2 km/h (1 Bft) 93,62 %
09.04.2026 01:54 9,4 °C 8,9 °C 5,6 °C 69 % 1022,4 hPa 0,0 l/m² 0 min 0 W/m² 3,2 km/h (1 Bft) 95,74 %
09.04.2026 01:56 9,4 °C 8,9 °C 5,6 °C 69 % 1022,5 hPa 0,0 l/m² 0 min 0 W/m² 6,4 km/h (2 Bft) 95,65 %
09.04.2026 01:58 9,4 °C 9,4 °C 5,6 °C 69 % 1022,4 hPa 0,0 l/m² 0 min 0 W/m² 3,2 km/h (1 Bft) 98,00 %
09.04.2026 02:00 9,4 °C 9,4 °C 5,6 °C 69 % 1022,4 hPa 0,0 l/m² 0 min 0 W/m² 3,2 km/h (1 Bft) 95,74 %
09.04.2026 02:02 9,4 °C 9,4 °C 6,1 °C 69 % 1022,4 hPa 0,0 l/m² 0 min 0 W/m² 3,2 km/h (1 Bft) 95,74 %
09.04.2026 02:04 9,4 °C 9,4 °C 6,1 °C 69 % 1022,3 hPa 0,0 l/m² 0 min 0 W/m² 3,2 km/h (1 Bft) 95,24 %
09.04.2026 02:06 9,6 °C 10,0 °C 6,1 °C 69 % 1022,4 hPa 0,0 l/m² 0 min 0 W/m² 6,4 km/h (2 Bft) 95,74 %
09.04.2026 02:08 9,6 °C 10,0 °C 6,7 °C 69 % 1022,4 hPa 0,0 l/m² 0 min 0 W/m² 9,7 km/h (2 Bft) 95,74 %
09.04.2026 02:10 9,7 °C 10,0 °C 6,7 °C 68 % 1022,4 hPa 0,0 l/m² 0 min 0 W/m² 6,4 km/h (2 Bft) 93,62 %
09.04.2026 02:16 10,0 °C 10,6 °C 7,2 °C 67 % 1022,3 hPa 0,0 l/m² 0 min 0 W/m² 12,9 km/h (3 Bft) 97,65 %
09.04.2026 02:18 10,1 °C 10,6 °C 7,2 °C 66 % 1022,3 hPa 0,0 l/m² 0 min 0 W/m² 6,4 km/h (2 Bft) 95,74 %
09.04.2026 02:20 10,2 °C 10,6 °C 7,2 °C 66 % 1022,3 hPa 0,0 l/m² 0 min 0 W/m² 12,9 km/h (3 Bft) 95,65 %
09.04.2026 02:22 10,3 °C 10,6 °C 7,2 °C 65 % 1022,2 hPa 0,0 l/m² 0 min 0 W/m² 6,4 km/h (2 Bft) 97,87 %
09.04.2026 02:24 10,4 °C 10,6 °C 7,2 °C 65 % 1022,3 hPa 0,0 l/m² 0 min 0 W/m² 12,9 km/h (3 Bft) 97,87 %
09.04.2026 02:26 10,5 °C 10,6 °C 7,2 °C 65 % 1022,2 hPa 0,0 l/m² 0 min 0 W/m² 12,9 km/h (3 Bft) 97,87 %
09.04.2026 02:28 10,6 °C 10,6 °C 7,2 °C 64 % 1022,2 hPa 0,0 l/m² 0 min 0 W/m² 6,4 km/h (2 Bft) 95,74 %
09.04.2026 02:30 10,6 °C 10,6 °C 7,2 °C 64 % 1022,1 hPa 0,0 l/m² 0 min 0 W/m² 12,9 km/h (3 Bft) 97,87 %
09.04.2026 02:32 10,7 °C 10,6 °C 7,2 °C 64 % 1022,2 hPa 0,0 l/m² 0 min 0 W/m² 9,7 km/h (2 Bft) 97,87 %
09.04.2026 02:34 10,8 °C 10,6 °C 7,2 °C 63 % 1022,1 hPa 0,0 l/m² 0 min 0 W/m² 12,9 km/h (3 Bft) 97,83 %
09.04.2026 02:36 10,8 °C 10,6 °C 7,2 °C 63 % 1022,1 hPa 0,0 l/m² 0 min 0 W/m² 12,9 km/h (3 Bft) 100,00 %
09.04.2026 02:38 10,8 °C 10,6 °C 7,2 °C 63 % 1022,1 hPa 0,0 l/m² 0 min 0 W/m² 12,9 km/h (3 Bft) 100,00 %
09.04.2026 02:40 10,9 °C 10,6 °C 7,2 °C 62 % 1022,1 hPa 0,0 l/m² 0 min 0 W/m² 12,9 km/h (3 Bft) 100,00 %
09.04.2026 02:42 10,9 °C 10,6 °C 7,2 °C 62 % 1022,1 hPa 0,0 l/m² 0 min 0 W/m² 12,9 km/h (3 Bft) 100,00 %
09.04.2026 02:44 10,9 °C 10,6 °C 7,2 °C 62 % 1022,0 hPa 0,0 l/m² 0 min 0 W/m² 9,7 km/h (2 Bft) 100,00 %
09.04.2026 02:46 11,0 °C 10,6 °C 7,2 °C 62 % 1022,1 hPa 0,0 l/m² 0 min 0 W/m² 9,7 km/h (2 Bft) 100,00 %
09.04.2026 02:48 11,1 °C 10,6 °C 7,2 °C 61 % 1022,0 hPa 0,0 l/m² 0 min 0 W/m² 9,7 km/h (2 Bft) 100,00 %
09.04.2026 02:50 11,1 °C 10,6 °C 7,2 °C 61 % 1022,0 hPa 0,0 l/m² 0 min 0 W/m² 9,7 km/h (2 Bft) 100,00 %
09.04.2026 02:52 11,1 °C 10,6 °C 7,2 °C 61 % 1022,0 hPa 0,0 l/m² 0 min 0 W/m² 12,9 km/h (3 Bft) 96,72 %
09.04.2026 02:54 11,1 °C 10,6 °C 6,7 °C 61 % 1021,9 hPa 0,0 l/m² 0 min 0 W/m² 16,1 km/h (3 Bft) 100,00 %
09.04.2026 02:56 11,1 °C 10,0 °C 6,7 °C 61 % 1021,9 hPa 0,0 l/m² 0 min 0 W/m² 9,7 km/h (2 Bft) 100,00 %
09.04.2026 02:58 11,1 °C 10,0 °C 6,7 °C 61 % 1021,9 hPa 0,0 l/m² 0 min 0 W/m² 12,9 km/h (3 Bft) 97,87 %
09.04.2026 03:00 11,1 °C 10,0 °C 6,7 °C 61 % 1021,9 hPa 0,0 l/m² 0 min 0 W/m² 6,4 km/h (2 Bft) 97,87 %
09.04.2026 03:02 11,1 °C 10,0 °C 6,7 °C 61 % 1021,9 hPa 0,0 l/m² 0 min 0 W/m² 12,9 km/h (3 Bft) 97,56 %
09.04.2026 03:04 11,1 °C 10,0 °C 6,7 °C 60 % 1021,9 hPa 0,0 l/m² 0 min 0 W/m² 6,4 km/h (2 Bft) 100,00 %
09.04.2026 03:06 11,1 °C 10,0 °C 6,7 °C 60 % 1021,9 hPa 0,0 l/m² 0 min 0 W/m² 6,4 km/h (2 Bft) 100,00 %
09.04.2026 03:08 11,1 °C 10,0 °C 6,7 °C 60 % 1021,8 hPa 0,0 l/m² 0 min 0 W/m² 6,4 km/h (2 Bft) 100,00 %
09.04.2026 03:10 11,1 °C 10,0 °C 6,7 °C 60 % 1021,7 hPa 0,0 l/m² 0 min 0 W/m² 6,4 km/h (2 Bft) 97,87 %
09.04.2026 03:12 11,1 °C 10,0 °C 6,7 °C 60 % 1021,8 hPa 0,0 l/m² 0 min 0 W/m² 6,4 km/h (2 Bft) 100,00 %
09.04.2026 03:14 11,0 °C 10,0 °C 6,7 °C 60 % 1021,8 hPa 0,0 l/m² 0 min 0 W/m² 3,2 km/h (1 Bft) 100,00 %
09.04.2026 03:16 11,0 °C 10,0 °C 6,7 °C 60 % 1021,7 hPa 0,0 l/m² 0 min 0 W/m² 6,4 km/h (2 Bft) 100,00 %
09.04.2026 03:18 10,9 °C 10,0 °C 6,7 °C 60 % 1021,7 hPa 0,0 l/m² 0 min 0 W/m² 3,2 km/h (1 Bft) 95,74 %
09.04.2026 03:20 10,9 °C 10,0 °C 6,7 °C 60 % 1021,7 hPa 0,0 l/m² 0 min 0 W/m² 6,4 km/h (2 Bft) 95,92 %
09.04.2026 03:22 10,9 °C 10,0 °C 6,1 °C 60 % 1021,7 hPa 0,0 l/m² 0 min 0 W/m² 6,4 km/h (2 Bft) 97,87 %
09.04.2026 03:24 10,9 °C 9,4 °C 6,1 °C 60 % 1021,7 hPa 0,0 l/m² 0 min 0 W/m² 0,0 km/h (0 Bft) 97,56 %
09.04.2026 03:26 10,8 °C 9,4 °C 6,1 °C 60 % 1021,7 hPa 0,0 l/m² 0 min 0 W/m² 3,2 km/h (1 Bft) 97,87 %
09.04.2026 03:28 10,8 °C 9,4 °C 6,1 °C 60 % 1021,7 hPa 0,0 l/m² 0 min 0 W/m² 6,4 km/h (2 Bft) 97,87 %
09.04.2026 03:30 10,8 °C 9,4 °C 6,1 °C 60 % 1021,6 hPa 0,0 l/m² 0 min 0 W/m² 3,2 km/h (1 Bft) 97,87 %
09.04.2026 03:32 10,8 °C 9,4 °C 6,1 °C 60 % 1021,6 hPa 0,0 l/m² 0 min 0 W/m² 6,4 km/h (2 Bft) 98,00 %
09.04.2026 03:34 10,8 °C 9,4 °C 6,1 °C 60 % 1021,5 hPa 0,0 l/m² 0 min 0 W/m² 3,2 km/h (1 Bft) 97,87 %
09.04.2026 03:36 10,7 °C 9,4 °C 6,1 °C 60 % 1021,5 hPa 0,0 l/m² 0 min 0 W/m² 3,2 km/h (1 Bft) 95,92 %
09.04.2026 03:38 10,7 °C 9,4 °C 6,1 °C 60 % 1021,5 hPa 0,0 l/m² 0 min 0 W/m² 6,4 km/h (2 Bft) 97,87 %
09.04.2026 03:40 10,7 °C 9,4 °C 6,1 °C 60 % 1021,4 hPa 0,0 l/m² 0 min 0 W/m² 3,2 km/h (1 Bft) 95,83 %
09.04.2026 03:42 10,6 °C 9,4 °C 6,1 °C 60 % 1021,4 hPa 0,0 l/m² 0 min 0 W/m² 3,2 km/h (1 Bft) 98,44 %
09.04.2026 03:44 10,6 °C 9,4 °C 6,1 °C 60 % 1021,4 hPa 0,0 l/m² 0 min 0 W/m² 3,2 km/h (1 Bft) 97,87 %
09.04.2026 03:46 10,6 °C 9,4 °C 6,1 °C 60 % 1021,3 hPa 0,0 l/m² 0 min 0 W/m² 6,4 km/h (2 Bft) 95,74 %
09.04.2026 03:48 10,6 °C 9,4 °C 6,1 °C 60 % 1021,3 hPa 0,0 l/m² 0 min 0 W/m² 3,2 km/h (1 Bft) 94,00 %
09.04.2026 03:50 10,6 °C 9,4 °C 6,1 °C 60 % 1021,3 hPa 0,0 l/m² 0 min 0 W/m² 3,2 km/h (1 Bft) 94,00 %
09.04.2026 03:52 10,5 °C 9,4 °C 6,1 °C 60 % 1021,3 hPa 0,0 l/m² 0 min 0 W/m² 6,4 km/h (2 Bft) 95,45 %
09.04.2026 03:54 10,5 °C 9,4 °C 6,1 °C 60 % 1021,4 hPa 0,0 l/m² 0 min 0 W/m² 6,4 km/h (2 Bft) 95,74 %
09.04.2026 03:56 10,4 °C 9,4 °C 6,1 °C 60 % 1021,3 hPa 0,0 l/m² 0 min 0 W/m² 6,4 km/h (2 Bft) 97,83 %
09.04.2026 03:58 10,4 °C 9,4 °C 6,1 °C 60 % 1021,3 hPa 0,0 l/m² 0 min 0 W/m² 6,4 km/h (2 Bft) 96,00 %
09.04.2026 04:00 10,4 °C 9,4 °C 6,1 °C 60 % 1021,3 hPa 0,0 l/m² 0 min 0 W/m² 3,2 km/h (1 Bft) 95,74 %
09.04.2026 04:02 10,4 °C 9,4 °C 6,1 °C 60 % 1021,2 hPa 0,0 l/m² 0 min 0 W/m² 3,2 km/h (1 Bft) 97,37 %
09.04.2026 04:04 10,4 °C 9,4 °C 6,1 °C 60 % 1021,2 hPa 0,0 l/m² 0 min 0 W/m² 3,2 km/h (1 Bft) 97,87 %
09.04.2026 04:06 10,4 °C 9,4 °C 6,1 °C 60 % 1021,2 hPa 0,0 l/m² 0 min 0 W/m² 3,2 km/h (1 Bft) 98,00 %
09.04.2026 04:08 10,3 °C 9,4 °C 6,1 °C 61 % 1021,2 hPa 0,0 l/m² 0 min 0 W/m² 3,2 km/h (1 Bft) 97,87 %
09.04.2026 04:10 10,3 °C 9,4 °C 6,1 °C 60 % 1021,2 hPa 0,0 l/m² 0 min 0 W/m² 6,4 km/h (2 Bft) 96,15 %
09.04.2026 04:12 10,3 °C 9,4 °C 6,1 °C 60 % 1021,2 hPa 0,0 l/m² 0 min 0 W/m² 12,9 km/h (3 Bft) 100,00 %
09.04.2026 04:14 10,3 °C 9,4 °C 6,1 °C 60 % 1021,2 hPa 0,0 l/m² 0 min 0 W/m² 12,9 km/h (3 Bft) 97,96 %
09.04.2026 04:16 10,3 °C 9,4 °C 6,1 °C 60 % 1021,2 hPa 0,0 l/m² 0 min 0 W/m² 6,4 km/h (2 Bft) 97,87 %
09.04.2026 04:18 10,3 °C 9,4 °C 6,1 °C 60 % 1021,2 hPa 0,0 l/m² 0 min 0 W/m² 6,4 km/h (2 Bft) 98,00 %
09.04.2026 04:20 10,3 °C 9,4 °C 6,1 °C 60 % 1021,2 hPa 0,0 l/m² 0 min 0 W/m² 6,4 km/h (2 Bft) 97,87 %
09.04.2026 04:22 10,3 °C 9,4 °C 6,1 °C 60 % 1021,2 hPa 0,0 l/m² 0 min 0 W/m² 6,4 km/h (2 Bft) 100,00 %
09.04.2026 04:24 10,3 °C 9,4 °C 6,1 °C 60 % 1021,1 hPa 0,0 l/m² 0 min 0 W/m² 3,2 km/h (1 Bft) 100,00 %
09.04.2026 04:26 10,3 °C 9,4 °C 6,1 °C 60 % 1021,1 hPa 0,0 l/m² 0 min 0 W/m² 6,4 km/h (2 Bft) 100,00 %
09.04.2026 04:28 10,3 °C 9,4 °C 6,1 °C 60 % 1021,1 hPa 0,0 l/m² 0 min 0 W/m² 9,7 km/h (2 Bft) 97,87 %
09.04.2026 04:30 10,3 °C 9,4 °C 6,1 °C 60 % 1021,2 hPa 0,0 l/m² 0 min 0 W/m² 12,9 km/h (3 Bft) 97,87 %
09.04.2026 04:32 10,3 °C 9,4 °C 6,1 °C 60 % 1021,1 hPa 0,0 l/m² 0 min 0 W/m² 6,4 km/h (2 Bft) 97,87 %
09.04.2026 04:34 10,3 °C 9,4 °C 6,1 °C 60 % 1021,1 hPa 0,0 l/m² 0 min 0 W/m² 3,2 km/h (1 Bft) 97,87 %
09.04.2026 04:36 10,3 °C 9,4 °C 6,1 °C 60 % 1021,1 hPa 0,0 l/m² 0 min 0 W/m² 6,4 km/h (2 Bft) 94,00 %
09.04.2026 04:38 10,3 °C 9,4 °C 6,1 °C 60 % 1021,1 hPa 0,0 l/m² 0 min 0 W/m² 3,2 km/h (1 Bft) 100,00 %
09.04.2026 04:40 10,2 °C 9,4 °C 6,1 °C 60 % 1021,1 hPa 0,0 l/m² 0 min 0 W/m² 6,4 km/h (2 Bft) 97,14 %
09.04.2026 04:42 10,2 °C 9,4 °C 6,1 °C 60 % 1021,0 hPa 0,0 l/m² 0 min 0 W/m² 6,4 km/h (2 Bft) 98,11 %
09.04.2026 04:44 10,2 °C 8,9 °C 5,6 °C 60 % 1021,1 hPa 0,0 l/m² 0 min 0 W/m² 3,2 km/h (1 Bft) 97,96 %
09.04.2026 04:46 10,2 °C 8,9 °C 5,6 °C 60 % 1021,1 hPa 0,0 l/m² 0 min 0 W/m² 9,7 km/h (2 Bft) 97,87 %
09.04.2026 04:48 10,2 °C 8,9 °C 5,6 °C 60 % 1021,1 hPa 0,0 l/m² 0 min 0 W/m² 3,2 km/h (1 Bft) 97,87 %
09.04.2026 04:50 10,2 °C 8,9 °C 5,6 °C 60 % 1021,1 hPa 0,0 l/m² 0 min 0 W/m² 6,4 km/h (2 Bft) 97,87 %
09.04.2026 04:52 10,1 °C 8,9 °C 5,6 °C 60 % 1021,1 hPa 0,0 l/m² 0 min 0 W/m² 3,2 km/h (1 Bft) 96,00 %
09.04.2026 04:54 10,1 °C 8,9 °C 5,6 °C 60 % 1021,1 hPa 0,0 l/m² 0 min 0 W/m² 9,7 km/h (2 Bft) 97,87 %
09.04.2026 04:56 10,1 °C 8,9 °C 5,6 °C 60 % 1021,1 hPa 0,0 l/m² 0 min 0 W/m² 3,2 km/h (1 Bft) 97,37 %
09.04.2026 04:58 10,1 °C 8,9 °C 5,6 °C 60 % 1021,1 hPa 0,0 l/m² 0 min 0 W/m² 9,7 km/h (2 Bft) 97,87 %
09.04.2026 05:00 10,1 °C 8,9 °C 5,6 °C 60 % 1021,0 hPa 0,0 l/m² 0 min 0 W/m² 12,9 km/h (3 Bft) 95,74 %
09.04.2026 05:02 10,1 °C 8,9 °C 5,6 °C 61 % 1021,0 hPa 0,0 l/m² 0 min 0 W/m² 3,2 km/h (1 Bft) 95,65 %
09.04.2026 05:04 10,1 °C 8,9 °C 5,6 °C 61 % 1021,1 hPa 0,0 l/m² 0 min 0 W/m² 3,2 km/h (1 Bft) 97,87 %
09.04.2026 05:06 10,0 °C 8,3 °C 5,6 °C 61 % 1021,0 hPa 0,0 l/m² 0 min 0 W/m² 3,2 km/h (1 Bft) 95,74 %
09.04.2026 05:08 9,9 °C 8,3 °C 5,0 °C 62 % 1021,1 hPa 0,0 l/m² 0 min 0 W/m² 0,0 km/h (0 Bft) 96,43 %
09.04.2026 05:10 9,9 °C 8,3 °C 5,0 °C 62 % 1021,1 hPa 0,0 l/m² 0 min 0 W/m² 3,2 km/h (1 Bft) 95,74 %
09.04.2026 05:12 9,9 °C 7,8 °C 5,0 °C 63 % 1021,0 hPa 0,0 l/m² 0 min 0 W/m² 0,0 km/h (0 Bft) 97,87 %
09.04.2026 05:14 9,8 °C 7,8 °C 5,0 °C 63 % 1021,1 hPa 0,0 l/m² 0 min 0 W/m² 0,0 km/h (0 Bft) 97,37 %
09.04.2026 05:16 9,7 °C 7,8 °C 5,0 °C 63 % 1021,0 hPa 0,0 l/m² 0 min 0 W/m² 3,2 km/h (1 Bft) 97,87 %
09.04.2026 05:18 9,7 °C 7,8 °C 4,4 °C 63 % 1021,1 hPa 0,0 l/m² 0 min 0 W/m² 0,0 km/h (0 Bft) 97,96 %
09.04.2026 05:20 9,6 °C 7,8 °C 4,4 °C 64 % 1021,0 hPa 0,0 l/m² 0 min 0 W/m² 3,2 km/h (1 Bft) 97,56 %
09.04.2026 05:22 9,6 °C 7,8 °C 5,0 °C 63 % 1021,0 hPa 0,0 l/m² 0 min 0 W/m² 6,4 km/h (2 Bft) 96,36 %
09.04.2026 05:24 9,6 °C 8,3 °C 5,0 °C 63 % 1021,0 hPa 0,0 l/m² 0 min 0 W/m² 3,2 km/h (1 Bft) 100,00 %
09.04.2026 05:26 9,5 °C 8,3 °C 5,0 °C 62 % 1021,0 hPa 0,0 l/m² 0 min 0 W/m² 9,7 km/h (2 Bft) 100,00 %
09.04.2026 05:28 9,4 °C 8,3 °C 5,0 °C 62 % 1020,9 hPa 0,0 l/m² 0 min 0 W/m² 9,7 km/h (2 Bft) 98,00 %
09.04.2026 05:30 9,4 °C 8,3 °C 5,0 °C 62 % 1020,9 hPa 0,0 l/m² 0 min 0 W/m² 6,4 km/h (2 Bft) 100,00 %
09.04.2026 05:32 9,4 °C 8,3 °C 5,0 °C 62 % 1020,8 hPa 0,0 l/m² 0 min 0 W/m² 9,7 km/h (2 Bft) 97,96 %
09.04.2026 05:34 9,4 °C 8,3 °C 5,0 °C 62 % 1020,8 hPa 0,0 l/m² 0 min 0 W/m² 12,9 km/h (3 Bft) 95,74 %
09.04.2026 05:36 9,3 °C 8,3 °C 5,0 °C 62 % 1020,7 hPa 0,0 l/m² 0 min 0 W/m² 6,4 km/h (2 Bft) 95,74 %
09.04.2026 05:38 9,3 °C 8,3 °C 5,0 °C 62 % 1020,8 hPa 0,0 l/m² 0 min 0 W/m² 6,4 km/h (2 Bft) 98,00 %
09.04.2026 05:40 9,3 °C 8,3 °C 5,0 °C 62 % 1020,8 hPa 0,0 l/m² 0 min 0 W/m² 6,4 km/h (2 Bft) 92,11 %
09.04.2026 05:42 9,3 °C 8,3 °C 5,0 °C 62 % 1020,8 hPa 0,0 l/m² 0 min 0 W/m² 3,2 km/h (1 Bft) 95,74 %
09.04.2026 05:44 9,3 °C 8,3 °C 5,0 °C 62 % 1020,8 hPa 0,0 l/m² 0 min 0 W/m² 6,4 km/h (2 Bft) 95,74 %
09.04.2026 05:46 9,3 °C 8,3 °C 5,0 °C 62 % 1020,8 hPa 0,0 l/m² 0 min 0 W/m² 12,9 km/h (3 Bft) 95,74 %
09.04.2026 05:48 9,3 °C 8,3 °C 5,0 °C 62 % 1020,8 hPa 0,0 l/m² 0 min 0 W/m² 6,4 km/h (2 Bft) 96,00 %
09.04.2026 05:50 9,3 °C 8,3 °C 5,0 °C 62 % 1020,8 hPa 0,0 l/m² 0 min 0 W/m² 6,4 km/h (2 Bft) 93,48 %
09.04.2026 05:52 9,3 °C 8,3 °C 5,0 °C 62 % 1020,9 hPa 0,0 l/m² 0 min 0 W/m² 6,4 km/h (2 Bft) 95,74 %
09.04.2026 05:54 9,3 °C 8,3 °C 5,0 °C 62 % 1020,8 hPa 0,0 l/m² 0 min 0 W/m² 6,4 km/h (2 Bft) 95,74 %
09.04.2026 05:56 9,3 °C 8,3 °C 5,0 °C 62 % 1020,8 hPa 0,0 l/m² 0 min 0 W/m² 3,2 km/h (1 Bft) 95,74 %
09.04.2026 05:58 9,3 °C 8,3 °C 5,0 °C 62 % 1020,8 hPa 0,0 l/m² 0 min 0 W/m² 6,4 km/h (2 Bft) 94,29 %
09.04.2026 06:00 9,3 °C 8,3 °C 5,0 °C 62 % 1020,8 hPa 0,0 l/m² 0 min 0 W/m² 6,4 km/h (2 Bft) 96,77 %
09.04.2026 06:02 9,3 °C 8,3 °C 5,0 °C 62 % 1020,8 hPa 0,0 l/m² 0 min 0 W/m² 6,4 km/h (2 Bft) 95,74 %
09.04.2026 06:04 9,2 °C 8,3 °C 5,0 °C 62 % 1020,8 hPa 0,0 l/m² 0 min 0 W/m² 6,4 km/h (2 Bft) 100,00 %
09.04.2026 06:06 9,2 °C 8,3 °C 5,0 °C 62 % 1020,8 hPa 0,0 l/m² 0 min 0 W/m² 6,4 km/h (2 Bft) 96,55 %
09.04.2026 06:08 9,2 °C 8,3 °C 5,0 °C 62 % 1020,8 hPa 0,0 l/m² 0 min 0 W/m² 9,7 km/h (2 Bft) 97,22 %
09.04.2026 06:10 9,2 °C 8,3 °C 5,0 °C 62 % 1020,8 hPa 0,0 l/m² 0 min 0 W/m² 6,4 km/h (2 Bft) 100,00 %
09.04.2026 06:12 9,2 °C 8,3 °C 5,0 °C 62 % 1020,8 hPa 0,0 l/m² 0 min 0 W/m² 6,4 km/h (2 Bft) 98,00 %
09.04.2026 06:14 9,2 °C 8,3 °C 5,0 °C 62 % 1020,8 hPa 0,0 l/m² 0 min 0 W/m² 12,9 km/h (3 Bft) 97,87 %
09.04.2026 06:16 9,2 °C 8,3 °C 5,0 °C 62 % 1020,8 hPa 0,0 l/m² 0 min 0 W/m² 6,4 km/h (2 Bft) 95,74 %
09.04.2026 06:18 9,2 °C 8,3 °C 5,0 °C 62 % 1020,8 hPa 0,0 l/m² 0 min 0 W/m² 6,4 km/h (2 Bft) 97,87 %
09.04.2026 06:20 9,2 °C 8,3 °C 5,0 °C 62 % 1020,8 hPa 0,0 l/m² 0 min 0 W/m² 12,9 km/h (3 Bft) 95,74 %
09.04.2026 06:22 9,2 °C 8,3 °C 5,0 °C 62 % 1020,8 hPa 0,0 l/m² 0 min 0 W/m² 6,4 km/h (2 Bft) 100,00 %
09.04.2026 06:24 9,2 °C 8,3 °C 5,0 °C 62 % 1020,8 hPa 0,0 l/m² 0 min 0 W/m² 3,2 km/h (1 Bft) 100,00 %
09.04.2026 06:26 9,2 °C 8,3 °C 5,0 °C 62 % 1020,7 hPa 0,0 l/m² 0 min 0 W/m² 12,9 km/h (3 Bft) 100,00 %
09.04.2026 06:28 9,2 °C 8,3 °C 5,0 °C 62 % 1020,7 hPa 0,0 l/m² 0 min 0 W/m² 6,4 km/h (2 Bft) 100,00 %
09.04.2026 06:30 9,1 °C 8,3 °C 5,0 °C 62 % 1020,7 hPa 0,0 l/m² 0 min 0 W/m² 12,9 km/h (3 Bft) 100,00 %
09.04.2026 06:32 9,1 °C 8,3 °C 5,0 °C 62 % 1020,8 hPa 0,0 l/m² 0 min 0 W/m² 9,7 km/h (2 Bft) 100,00 %
09.04.2026 06:34 9,1 °C 8,3 °C 5,0 °C 62 % 1020,8 hPa 0,0 l/m² 0 min 0 W/m² 6,4 km/h (2 Bft) 100,00 %
09.04.2026 06:36 9,1 °C 8,3 °C 5,0 °C 62 % 1020,8 hPa 0,0 l/m² 0 min 0 W/m² 12,9 km/h (3 Bft) 100,00 %
09.04.2026 06:38 9,1 °C 7,8 °C 5,0 °C 63 % 1020,8 hPa 0,0 l/m² 0 min 0 W/m² 9,7 km/h (2 Bft) 97,87 %
09.04.2026 06:40 9,1 °C 7,8 °C 5,0 °C 63 % 1020,8 hPa 0,0 l/m² 0 min 0 W/m² 12,9 km/h (3 Bft) 100,00 %
09.04.2026 06:42 9,1 °C 8,3 °C 5,0 °C 63 % 1020,9 hPa 0,0 l/m² 0 min 0 W/m² 9,7 km/h (2 Bft) 100,00 %
09.04.2026 06:44 9,1 °C 7,8 °C 5,0 °C 63 % 1020,8 hPa 0,0 l/m² 0 min 0 W/m² 6,4 km/h (2 Bft) 100,00 %
09.04.2026 06:46 9,0 °C 7,8 °C 5,0 °C 63 % 1020,8 hPa 0,0 l/m² 0 min 0 W/m² 6,4 km/h (2 Bft) 100,00 %
09.04.2026 06:48 9,0 °C 7,8 °C 5,0 °C 63 % 1020,8 hPa 0,0 l/m² 0 min 0 W/m² 6,4 km/h (2 Bft) 100,00 %
09.04.2026 06:50 8,9 °C 7,8 °C 5,0 °C 63 % 1020,9 hPa 0,0 l/m² 0 min 0 W/m² 9,7 km/h (2 Bft) 97,87 %
09.04.2026 06:52 8,9 °C 7,8 °C 4,4 °C 63 % 1020,8 hPa 0,0 l/m² 0 min 0 W/m² 6,4 km/h (2 Bft) 100,00 %
09.04.2026 06:54 8,9 °C 7,8 °C 4,4 °C 63 % 1020,8 hPa 0,0 l/m² 0 min 0 W/m² 6,4 km/h (2 Bft) 100,00 %
09.04.2026 06:56 8,9 °C 7,8 °C 4,4 °C 63 % 1020,8 hPa 0,0 l/m² 0 min 0 W/m² 6,4 km/h (2 Bft) 97,87 %
09.04.2026 06:58 8,9 °C 7,8 °C 4,4 °C 63 % 1020,8 hPa 0,0 l/m² 0 min 0 W/m² 6,4 km/h (2 Bft) 100,00 %
09.04.2026 07:00 8,9 °C 7,8 °C 4,4 °C 63 % 1020,7 hPa 0,0 l/m² 0 min 4 W/m² 6,4 km/h (2 Bft) 100,00 %
09.04.2026 07:02 8,9 °C 7,8 °C 4,4 °C 63 % 1020,8 hPa 0,0 l/m² 0 min 5 W/m² 6,4 km/h (2 Bft) 97,44 %
09.04.2026 07:04 8,8 °C 7,8 °C 4,4 °C 64 % 1020,8 hPa 0,0 l/m² 0 min 5 W/m² 3,2 km/h (1 Bft) 98,08 %
09.04.2026 07:06 8,8 °C 7,8 °C 4,4 °C 64 % 1020,8 hPa 0,0 l/m² 0 min 6 W/m² 6,4 km/h (2 Bft) 97,87 %
09.04.2026 07:08 8,8 °C 7,8 °C 4,4 °C 64 % 1020,7 hPa 0,0 l/m² 0 min 7 W/m² 6,4 km/h (2 Bft) 50,00 %
09.04.2026 07:10 8,8 °C 7,8 °C 4,4 °C 64 % 1020,7 hPa 0,0 l/m² 0 min 7 W/m² 12,9 km/h (3 Bft) 100,00 %
09.04.2026 07:12 8,8 °C 7,8 °C 4,4 °C 64 % 1020,7 hPa 0,0 l/m² 0 min 9 W/m² 3,2 km/h (1 Bft) 100,00 %
09.04.2026 07:14 8,8 °C 7,8 °C 4,4 °C 64 % 1020,7 hPa 0,0 l/m² 0 min 10 W/m² 6,4 km/h (2 Bft) 100,00 %
09.04.2026 07:16 8,8 °C 7,8 °C 4,4 °C 64 % 1020,7 hPa 0,0 l/m² 0 min 11 W/m² 6,4 km/h (2 Bft) 95,12 %
09.04.2026 07:18 8,8 °C 7,8 °C 4,4 °C 64 % 1020,7 hPa 0,0 l/m² 0 min 12 W/m² 6,4 km/h (2 Bft) 97,83 %
09.04.2026 07:20 8,7 °C 7,8 °C 4,4 °C 64 % 1020,7 hPa 0,0 l/m² 0 min 13 W/m² 12,9 km/h (3 Bft) 97,87 %
09.04.2026 07:22 8,7 °C 7,8 °C 4,4 °C 64 % 1020,7 hPa 0,0 l/m² 0 min 14 W/m² 12,9 km/h (3 Bft) 98,11 %
09.04.2026 07:24 8,7 °C 7,8 °C 4,4 °C 64 % 1020,7 hPa 0,0 l/m² 0 min 15 W/m² 6,4 km/h (2 Bft) 96,00 %
09.04.2026 07:26 8,7 °C 7,8 °C 4,4 °C 64 % 1020,7 hPa 0,0 l/m² 0 min 16 W/m² 6,4 km/h (2 Bft) 97,87 %
09.04.2026 07:28 8,7 °C 7,8 °C 4,4 °C 64 % 1020,7 hPa 0,0 l/m² 0 min 17 W/m² 12,9 km/h (3 Bft) 97,56 %
09.04.2026 07:30 8,7 °C 7,8 °C 5,0 °C 64 % 1020,6 hPa 0,0 l/m² 0 min 19 W/m² 6,4 km/h (2 Bft) 97,87 %
09.04.2026 07:32 8,7 °C 7,8 °C 5,0 °C 64 % 1020,6 hPa 0,0 l/m² 0 min 20 W/m² 6,4 km/h (2 Bft) 100,00 %
09.04.2026 07:34 8,7 °C 8,3 °C 5,0 °C 65 % 1020,7 hPa 0,0 l/m² 0 min 24 W/m² 12,9 km/h (3 Bft) 97,83 %
09.04.2026 07:36 8,7 °C 8,3 °C 5,0 °C 65 % 1020,7 hPa 0,0 l/m² 0 min 25 W/m² 12,9 km/h (3 Bft) 97,87 %
09.04.2026 07:38 8,7 °C 8,3 °C 5,0 °C 65 % 1020,7 hPa 0,0 l/m² 0 min 27 W/m² 9,7 km/h (2 Bft) 97,87 %
09.04.2026 07:40 8,7 °C 8,3 °C 5,0 °C 65 % 1020,7 hPa 0,0 l/m² 0 min 29 W/m² 6,4 km/h (2 Bft) 95,74 %
09.04.2026 07:42 8,8 °C 8,3 °C 5,0 °C 65 % 1020,7 hPa 0,0 l/m² 0 min 32 W/m² 6,4 km/h (2 Bft) 96,00 %
09.04.2026 07:44 8,8 °C 8,3 °C 5,0 °C 65 % 1020,7 hPa 0,0 l/m² 0 min 33 W/m² 9,7 km/h (2 Bft) 95,74 %
09.04.2026 07:46 8,8 °C 8,3 °C 5,0 °C 65 % 1020,7 hPa 0,0 l/m² 0 min 35 W/m² 6,4 km/h (2 Bft) 97,37 %
09.04.2026 07:48 8,8 °C 8,3 °C 5,0 °C 65 % 1020,7 hPa 0,0 l/m² 0 min 35 W/m² 6,4 km/h (2 Bft) 97,87 %
09.04.2026 07:50 8,8 °C 8,3 °C 5,0 °C 65 % 1020,7 hPa 0,0 l/m² 0 min 35 W/m² 3,2 km/h (1 Bft) 95,74 %
09.04.2026 07:52 8,8 °C 8,3 °C 5,0 °C 65 % 1020,7 hPa 0,0 l/m² 0 min 35 W/m² 12,9 km/h (3 Bft) 98,15 %
09.04.2026 07:54 8,8 °C 8,3 °C 5,0 °C 65 % 1020,7 hPa 0,0 l/m² 0 min 35 W/m² 9,7 km/h (2 Bft) 95,74 %
09.04.2026 07:56 8,8 °C 8,3 °C 5,0 °C 65 % 1020,6 hPa 0,0 l/m² 0 min 35 W/m² 9,7 km/h (2 Bft) 94,00 %
09.04.2026 07:58 8,8 °C 8,3 °C 5,0 °C 65 % 1020,6 hPa 0,0 l/m² 0 min 37 W/m² 9,7 km/h (2 Bft) 97,87 %
09.04.2026 08:00 8,9 °C 8,3 °C 5,0 °C 65 % 1020,7 hPa 0,0 l/m² 0 min 39 W/m² 6,4 km/h (2 Bft) 100,00 %
09.04.2026 08:02 8,9 °C 8,3 °C 5,0 °C 65 % 1020,7 hPa 0,0 l/m² 0 min 39 W/m² 9,7 km/h (2 Bft) 97,87 %
09.04.2026 08:04 8,9 °C 8,9 °C 5,0 °C 65 % 1020,7 hPa 0,0 l/m² 0 min 39 W/m² 9,7 km/h (2 Bft) 91,49 %
09.04.2026 08:06 8,9 °C 8,9 °C 5,0 °C 65 % 1020,7 hPa 0,0 l/m² 0 min 39 W/m² 12,9 km/h (3 Bft) 97,14 %
09.04.2026 08:08 8,9 °C 8,9 °C 5,0 °C 65 % 1020,7 hPa 0,0 l/m² 0 min 39 W/m² 12,9 km/h (3 Bft) 95,08 %
09.04.2026 08:10 9,0 °C 8,9 °C 5,0 °C 65 % 1020,7 hPa 0,0 l/m² 0 min 37 W/m² 12,9 km/h (3 Bft) 95,74 %
09.04.2026 08:12 9,0 °C 8,9 °C 5,0 °C 65 % 1020,7 hPa 0,0 l/m² 0 min 38 W/m² 12,9 km/h (3 Bft) 94,74 %
09.04.2026 08:14 9,1 °C 8,9 °C 5,0 °C 65 % 1020,7 hPa 0,0 l/m² 0 min 39 W/m² 9,7 km/h (2 Bft) 95,74 %
09.04.2026 08:16 9,1 °C 8,9 °C 5,0 °C 64 % 1020,7 hPa 0,0 l/m² 0 min 37 W/m² 9,7 km/h (2 Bft) 94,29 %
09.04.2026 08:18 9,1 °C 8,9 °C 5,6 °C 64 % 1020,7 hPa 0,0 l/m² 0 min 37 W/m² 12,9 km/h (3 Bft) 95,59 %
09.04.2026 08:20 9,1 °C 8,9 °C 5,6 °C 64 % 1020,7 hPa 0,0 l/m² 0 min 37 W/m² 16,1 km/h (3 Bft) 95,65 %
09.04.2026 08:22 9,2 °C 8,9 °C 5,6 °C 64 % 1020,7 hPa 0,0 l/m² 0 min 37 W/m² 12,9 km/h (3 Bft) 91,49 %
09.04.2026 08:24 9,2 °C 9,4 °C 5,6 °C 64 % 1020,7 hPa 0,0 l/m² 0 min 37 W/m² 9,7 km/h (2 Bft) 95,74 %
09.04.2026 08:26 9,3 °C 9,4 °C 5,6 °C 64 % 1020,7 hPa 0,0 l/m² 0 min 37 W/m² 12,9 km/h (3 Bft) 94,29 %
09.04.2026 08:28 9,3 °C 9,4 °C 5,6 °C 64 % 1020,7 hPa 0,0 l/m² 0 min 37 W/m² 12,9 km/h (3 Bft) 96,00 %
09.04.2026 08:30 9,4 °C 9,4 °C 5,6 °C 64 % 1020,8 hPa 0,0 l/m² 0 min 39 W/m² 16,1 km/h (3 Bft) 97,87 %
09.04.2026 08:32 9,5 °C 9,4 °C 5,6 °C 64 % 1020,8 hPa 0,0 l/m² 0 min 39 W/m² 16,1 km/h (3 Bft) 97,87 %
09.04.2026 08:34 9,6 °C 9,4 °C 5,6 °C 64 % 1020,8 hPa 0,0 l/m² 0 min 40 W/m² 16,1 km/h (3 Bft) 98,00 %
09.04.2026 08:36 9,6 °C 9,4 °C 6,1 °C 64 % 1020,8 hPa 0,0 l/m² 0 min 42 W/m² 22,5 km/h (4 Bft) 97,87 %
09.04.2026 08:38 9,7 °C 10,0 °C 6,1 °C 63 % 1020,8 hPa 0,0 l/m² 0 min 42 W/m² 12,9 km/h (3 Bft) 98,00 %
09.04.2026 08:40 9,8 °C 10,0 °C 6,1 °C 63 % 1020,8 hPa 0,0 l/m² 0 min 42 W/m² 25,7 km/h (4 Bft) 97,83 %
09.04.2026 08:42 9,8 °C 10,0 °C 6,1 °C 63 % 1020,9 hPa 0,0 l/m² 0 min 44 W/m² 12,9 km/h (3 Bft) 97,87 %
09.04.2026 08:44 9,9 °C 10,0 °C 6,1 °C 63 % 1020,9 hPa 0,0 l/m² 0 min 44 W/m² 9,7 km/h (2 Bft) 95,74 %
09.04.2026 08:46 9,9 °C 10,0 °C 6,1 °C 63 % 1020,8 hPa 0,0 l/m² 0 min 44 W/m² 19,3 km/h (3 Bft) 97,87 %
09.04.2026 08:48 10,1 °C 10,0 °C 6,1 °C 63 % 1020,8 hPa 0,0 l/m² 0 min 45 W/m² 12,9 km/h (3 Bft) 95,74 %
09.04.2026 08:50 10,1 °C 10,0 °C 6,1 °C 63 % 1020,7 hPa 0,0 l/m² 0 min 46 W/m² 12,9 km/h (3 Bft) 100,00 %
09.04.2026 08:52 10,2 °C 10,0 °C 6,1 °C 63 % 1020,8 hPa 0,0 l/m² 0 min 46 W/m² 16,1 km/h (3 Bft) 100,00 %
09.04.2026 08:54 10,2 °C 10,6 °C 6,1 °C 63 % 1020,8 hPa 0,0 l/m² 0 min 48 W/m² 12,9 km/h (3 Bft) 97,87 %
09.04.2026 08:56 10,3 °C 10,6 °C 6,7 °C 63 % 1020,8 hPa 0,0 l/m² 0 min 51 W/m² 12,9 km/h (3 Bft) 100,00 %
09.04.2026 08:58 10,3 °C 10,6 °C 6,7 °C 63 % 1020,7 hPa 0,0 l/m² 0 min 55 W/m² 12,9 km/h (3 Bft) 97,87 %
09.04.2026 09:00 10,4 °C 10,6 °C 6,7 °C 62 % 1020,7 hPa 0,0 l/m² 0 min 111 W/m² 16,1 km/h (3 Bft) 100,00 %
09.04.2026 09:02 10,5 °C 10,6 °C 6,7 °C 62 % 1020,7 hPa 0,0 l/m² 2 min 184 W/m² 12,9 km/h (3 Bft) 98,00 %
09.04.2026 09:04 10,6 °C 10,6 °C 6,7 °C 62 % 1020,6 hPa 0,0 l/m² 2 min 300 W/m² 19,3 km/h (3 Bft) 97,87 %
09.04.2026 09:06 10,7 °C 11,1 °C 6,7 °C 62 % 1020,6 hPa 0,0 l/m² 2 min 316 W/m² 12,9 km/h (3 Bft) 100,00 %
09.04.2026 09:08 10,8 °C 11,1 °C 6,7 °C 62 % 1020,5 hPa 0,0 l/m² 2 min 331 W/m² 16,1 km/h (3 Bft) 97,14 %
09.04.2026 09:10 10,9 °C 11,1 °C 7,2 °C 61 % 1020,5 hPa 0,0 l/m² 2 min 329 W/m² 16,1 km/h (3 Bft) 97,87 %
09.04.2026 09:12 11,1 °C 11,7 °C 7,2 °C 61 % 1020,5 hPa 0,0 l/m² 2 min 332 W/m² 12,9 km/h (3 Bft) 97,87 %
09.04.2026 09:14 11,2 °C 12,2 °C 7,2 °C 61 % 1020,6 hPa 0,0 l/m² 2 min 353 W/m² 16,1 km/h (3 Bft) 98,00 %
09.04.2026 09:16 11,3 °C 13,3 °C 7,2 °C 61 % 1020,6 hPa 0,0 l/m² 2 min 342 W/m² 19,3 km/h (3 Bft) 97,83 %
09.04.2026 09:18 11,4 °C 13,3 °C 7,2 °C 61 % 1020,5 hPa 0,0 l/m² 2 min 249 W/m² 19,3 km/h (3 Bft) 98,00 %
09.04.2026 09:20 11,6 °C 12,8 °C 7,2 °C 60 % 1020,5 hPa 0,0 l/m² 0 min 161 W/m² 16,1 km/h (3 Bft) 97,37 %
09.04.2026 09:22 11,7 °C 12,8 °C 7,2 °C 60 % 1020,5 hPa 0,0 l/m² 0 min 148 W/m² 16,1 km/h (3 Bft) 96,61 %
09.04.2026 09:24 11,8 °C 13,9 °C 7,8 °C 59 % 1020,5 hPa 0,0 l/m² 0 min 162 W/m² 16,1 km/h (3 Bft) 97,87 %
09.04.2026 09:26 11,9 °C 15,0 °C 7,8 °C 58 % 1020,6 hPa 0,0 l/m² 2 min 331 W/m² 25,7 km/h (4 Bft) 97,37 %
09.04.2026 09:28 12,0 °C 15,0 °C 7,8 °C 58 % 1020,6 hPa 0,0 l/m² 0 min 180 W/m² 16,1 km/h (3 Bft) 98,00 %
09.04.2026 09:30 12,1 °C 15,0 °C 7,8 °C 58 % 1020,6 hPa 0,0 l/m² 2 min 320 W/m² 16,1 km/h (3 Bft) 97,87 %
09.04.2026 09:32 12,2 °C 14,4 °C 7,8 °C 57 % 1020,6 hPa 0,0 l/m² 2 min 218 W/m² 16,1 km/h (3 Bft) 97,83 %
09.04.2026 09:34 12,3 °C 14,4 °C 8,3 °C 57 % 1020,5 hPa 0,0 l/m² 2 min 332 W/m² 16,1 km/h (3 Bft) 95,74 %
09.04.2026 09:36 12,4 °C 14,4 °C 8,3 °C 57 % 1020,5 hPa 0,0 l/m² 2 min 257 W/m² 12,9 km/h (3 Bft) 97,87 %
09.04.2026 09:38 12,4 °C 13,9 °C 8,3 °C 57 % 1020,4 hPa 0,0 l/m² 2 min 233 W/m² 19,3 km/h (3 Bft) 96,00 %
09.04.2026 09:40 12,5 °C 13,9 °C 8,3 °C 57 % 1020,5 hPa 0,0 l/m² 2 min 217 W/m² 16,1 km/h (3 Bft) 95,74 %
09.04.2026 09:42 12,6 °C 13,9 °C 8,9 °C 57 % 1020,4 hPa 0,0 l/m² 2 min 302 W/m² 12,9 km/h (3 Bft) 98,00 %
09.04.2026 09:44 12,7 °C 14,4 °C 8,9 °C 57 % 1020,5 hPa 0,0 l/m² 2 min 343 W/m² 19,3 km/h (3 Bft) 97,37 %
09.04.2026 09:46 12,8 °C 15,0 °C 9,4 °C 57 % 1020,5 hPa 0,0 l/m² 2 min 421 W/m² 19,3 km/h (3 Bft) 97,87 %
09.04.2026 09:48 12,8 °C 15,0 °C 9,4 °C 56 % 1020,5 hPa 0,0 l/m² 2 min 514 W/m² 19,3 km/h (3 Bft) 100,00 %
09.04.2026 09:50 12,9 °C 15,0 °C 10,0 °C 57 % 1020,5 hPa 0,0 l/m² 2 min 398 W/m² 16,1 km/h (3 Bft) 100,00 %
09.04.2026 09:52 13,1 °C 15,0 °C 10,0 °C 57 % 1020,5 hPa 0,0 l/m² 2 min 340 W/m² 12,9 km/h (3 Bft) 100,00 %
09.04.2026 09:54 13,2 °C 14,4 °C 10,0 °C 57 % 1020,4 hPa 0,0 l/m² 0 min 217 W/m² 12,9 km/h (3 Bft) 100,00 %
09.04.2026 09:56 13,2 °C 14,4 °C 9,4 °C 57 % 1020,5 hPa 0,0 l/m² 0 min 210 W/m² 12,9 km/h (3 Bft) 100,00 %
09.04.2026 09:58 13,3 °C 13,9 °C 9,4 °C 56 % 1020,5 hPa 0,0 l/m² 0 min 196 W/m² 16,1 km/h (3 Bft) 100,00 %
09.04.2026 10:00 13,3 °C 13,9 °C 9,4 °C 56 % 1020,5 hPa 0,0 l/m² 0 min 220 W/m² 12,9 km/h (3 Bft) 97,87 %
09.04.2026 10:02 13,4 °C 13,9 °C 9,4 °C 56 % 1020,5 hPa 0,0 l/m² 2 min 298 W/m² 12,9 km/h (3 Bft) 100,00 %
09.04.2026 10:04 13,4 °C 13,9 °C 9,4 °C 55 % 1020,4 hPa 0,0 l/m² 2 min 320 W/m² 16,1 km/h (3 Bft) 100,00 %
09.04.2026 10:06 13,4 °C 13,9 °C 9,4 °C 56 % 1020,4 hPa 0,0 l/m² 2 min 240 W/m² 16,1 km/h (3 Bft) 100,00 %
09.04.2026 10:08 13,4 °C 14,4 °C 9,4 °C 56 % 1020,4 hPa 0,0 l/m² 2 min 280 W/m² 16,1 km/h (3 Bft) 100,00 %
09.04.2026 10:10 13,5 °C 14,4 °C 10,0 °C 56 % 1020,4 hPa 0,0 l/m² 2 min 257 W/m² 16,1 km/h (3 Bft) 100,00 %
09.04.2026 10:12 13,5 °C 14,4 °C 10,0 °C 56 % 1020,4 hPa 0,0 l/m² 2 min 269 W/m² 12,9 km/h (3 Bft) 100,00 %
09.04.2026 10:14 13,6 °C 14,4 °C 10,0 °C 56 % 1020,4 hPa 0,0 l/m² 2 min 286 W/m² 16,1 km/h (3 Bft) 100,00 %
09.04.2026 10:16 13,6 °C 14,4 °C 10,0 °C 56 % 1020,4 hPa 0,0 l/m² 2 min 264 W/m² 16,1 km/h (3 Bft) 97,87 %
09.04.2026 10:18 13,6 °C 14,4 °C 10,0 °C 56 % 1020,4 hPa 0,0 l/m² 2 min 258 W/m² 12,9 km/h (3 Bft) 97,87 %
09.04.2026 10:20 13,7 °C 14,4 °C 10,0 °C 56 % 1020,4 hPa 0,0 l/m² 2 min 262 W/m² 16,1 km/h (3 Bft) 97,87 %
09.04.2026 10:22 13,7 °C 14,4 °C 10,6 °C 55 % 1020,4 hPa 0,0 l/m² 2 min 296 W/m² 16,1 km/h (3 Bft) 97,87 %
09.04.2026 10:24 13,7 °C 14,4 °C 10,6 °C 55 % 1020,4 hPa 0,0 l/m² 2 min 263 W/m² 16,1 km/h (3 Bft) 95,74 %
09.04.2026 10:26 13,8 °C 15,0 °C 10,6 °C 55 % 1020,4 hPa 0,0 l/m² 2 min 272 W/m² 12,9 km/h (3 Bft) 95,65 %
09.04.2026 10:28 13,8 °C 15,0 °C 10,6 °C 55 % 1020,4 hPa 0,0 l/m² 2 min 291 W/m² 16,1 km/h (3 Bft) 97,87 %
09.04.2026 10:30 13,8 °C 15,0 °C 10,6 °C 55 % 1020,4 hPa 0,0 l/m² 2 min 275 W/m² 12,9 km/h (3 Bft) 95,74 %
09.04.2026 10:32 13,9 °C 15,0 °C 10,6 °C 55 % 1020,3 hPa 0,0 l/m² 2 min 268 W/m² 19,3 km/h (3 Bft) 97,87 %
09.04.2026 10:34 14,0 °C 15,0 °C 10,6 °C 55 % 1020,3 hPa 0,0 l/m² 2 min 266 W/m² 19,3 km/h (3 Bft) 96,00 %
09.04.2026 10:36 14,0 °C 15,0 °C 10,6 °C 54 % 1020,3 hPa 0,0 l/m² 2 min 271 W/m² 16,1 km/h (3 Bft) 97,87 %
09.04.2026 10:38 14,1 °C 15,0 °C 10,6 °C 54 % 1020,3 hPa 0,0 l/m² 2 min 282 W/m² 12,9 km/h (3 Bft) 97,87 %
09.04.2026 10:40 14,1 °C 15,0 °C 10,6 °C 54 % 1020,3 hPa 0,0 l/m² 2 min 289 W/m² 19,3 km/h (3 Bft) 97,87 %
09.04.2026 10:42 14,1 °C 15,0 °C 10,6 °C 53 % 1020,3 hPa 0,0 l/m² 2 min 287 W/m² 12,9 km/h (3 Bft) 95,92 %
09.04.2026 10:44 14,2 °C 15,0 °C 10,6 °C 53 % 1020,3 hPa 0,0 l/m² 2 min 294 W/m² 16,1 km/h (3 Bft) 97,87 %
09.04.2026 10:46 14,3 °C 15,0 °C 10,6 °C 53 % 1020,3 hPa 0,0 l/m² 2 min 289 W/m² 12,9 km/h (3 Bft) 98,00 %
09.04.2026 10:48 14,3 °C 15,0 °C 11,1 °C 53 % 1020,3 hPa 0,0 l/m² 2 min 280 W/m² 19,3 km/h (3 Bft) 97,87 %
09.04.2026 10:50 14,3 °C 15,0 °C 11,1 °C 53 % 1020,4 hPa 0,0 l/m² 2 min 301 W/m² 12,9 km/h (3 Bft) 97,87 %
09.04.2026 10:52 14,3 °C 15,0 °C 11,1 °C 53 % 1020,4 hPa 0,0 l/m² 0 min 279 W/m² 16,1 km/h (3 Bft) 97,37 %
09.04.2026 10:54 14,3 °C 15,6 °C 11,1 °C 53 % 1020,3 hPa 0,0 l/m² 0 min 280 W/m² 12,9 km/h (3 Bft) 97,87 %
09.04.2026 10:56 14,3 °C 15,6 °C 11,1 °C 53 % 1020,3 hPa 0,0 l/m² 2 min 298 W/m² 12,9 km/h (3 Bft) 97,87 %
09.04.2026 10:58 14,4 °C 15,6 °C 11,1 °C 53 % 1020,2 hPa 0,0 l/m² 2 min 403 W/m² 19,3 km/h (3 Bft) 100,00 %
09.04.2026 11:00 14,5 °C 16,1 °C 11,7 °C 54 % 1020,2 hPa 0,0 l/m² 2 min 350 W/m² 16,1 km/h (3 Bft) 100,00 %
09.04.2026 11:02 14,6 °C 16,1 °C 11,7 °C 54 % 1020,2 hPa 0,0 l/m² 2 min 385 W/m² 16,1 km/h (3 Bft) 100,00 %
09.04.2026 11:04 14,7 °C 16,7 °C 11,7 °C 54 % 1020,1 hPa 0,0 l/m² 2 min 546 W/m² 12,9 km/h (3 Bft) 100,00 %
09.04.2026 11:06 14,8 °C 17,2 °C 11,7 °C 54 % 1020,2 hPa 0,0 l/m² 2 min 625 W/m² 12,9 km/h (3 Bft) 97,87 %
09.04.2026 11:08 14,8 °C 16,7 °C 11,7 °C 54 % 1020,2 hPa 0,0 l/m² 2 min 587 W/m² 12,9 km/h (3 Bft) 100,00 %
09.04.2026 11:10 14,9 °C 17,2 °C 11,7 °C 54 % 1020,1 hPa 0,0 l/m² 2 min 421 W/m² 16,1 km/h (3 Bft) 100,00 %
09.04.2026 11:12 15,1 °C 17,2 °C 11,7 °C 53 % 1020,1 hPa 0,0 l/m² 2 min 395 W/m² 19,3 km/h (3 Bft) 97,83 %
09.04.2026 11:14 15,2 °C 17,2 °C 11,7 °C 53 % 1020,2 hPa 0,0 l/m² 2 min 398 W/m² 19,3 km/h (3 Bft) 100,00 %
09.04.2026 11:16 15,3 °C 17,2 °C 11,7 °C 53 % 1020,2 hPa 0,0 l/m² 0 min 223 W/m² 19,3 km/h (3 Bft) 97,83 %
09.04.2026 11:18 15,4 °C 17,2 °C 11,7 °C 52 % 1020,2 hPa 0,0 l/m² 0 min 230 W/m² 16,1 km/h (3 Bft) 100,00 %
09.04.2026 11:20 15,4 °C 17,8 °C 12,2 °C 52 % 1020,2 hPa 0,0 l/m² 0 min 214 W/m² 12,9 km/h (3 Bft) 97,87 %
09.04.2026 11:22 15,6 °C 17,8 °C 12,2 °C 52 % 1020,2 hPa 0,0 l/m² 2 min 319 W/m² 16,1 km/h (3 Bft) 98,00 %
09.04.2026 11:24 15,7 °C 17,8 °C 12,2 °C 52 % 1020,1 hPa 0,0 l/m² 2 min 555 W/m² 16,1 km/h (3 Bft) 97,87 %
09.04.2026 11:26 15,8 °C 17,8 °C 12,2 °C 51 % 1020,1 hPa 0,0 l/m² 2 min 560 W/m² 12,9 km/h (3 Bft) 95,74 %
09.04.2026 11:28 15,8 °C 17,8 °C 12,2 °C 51 % 1020,1 hPa 0,0 l/m² 2 min 546 W/m² 16,1 km/h (3 Bft) 93,62 %
09.04.2026 11:30 15,9 °C 17,8 °C 12,2 °C 51 % 1020,0 hPa 0,0 l/m² 2 min 543 W/m² 16,1 km/h (3 Bft) 95,92 %
09.04.2026 11:32 16,0 °C 17,2 °C 12,8 °C 51 % 1020,0 hPa 0,0 l/m² 2 min 415 W/m² 16,1 km/h (3 Bft) 94,74 %
09.04.2026 11:34 16,1 °C 17,2 °C 12,8 °C 51 % 1020,0 hPa 0,0 l/m² 2 min 407 W/m² 19,3 km/h (3 Bft) 95,74 %
09.04.2026 11:36 16,1 °C 17,2 °C 12,8 °C 51 % 1020,0 hPa 0,0 l/m² 2 min 483 W/m² 16,1 km/h (3 Bft) 94,00 %
09.04.2026 11:38 16,2 °C 17,8 °C 12,8 °C 51 % 1020,0 hPa 0,0 l/m² 2 min 437 W/m² 12,9 km/h (3 Bft) 93,62 %
09.04.2026 11:40 16,3 °C 17,8 °C 12,8 °C 50 % 1020,0 hPa 0,0 l/m² 2 min 482 W/m² 16,1 km/h (3 Bft) 94,00 %
09.04.2026 11:42 16,3 °C 17,8 °C 12,8 °C 50 % 1020,0 hPa 0,0 l/m² 2 min 395 W/m² 19,3 km/h (3 Bft) 96,00 %
09.04.2026 11:44 16,4 °C 18,9 °C 12,8 °C 51 % 1019,9 hPa 0,0 l/m² 2 min 438 W/m² 12,9 km/h (3 Bft) 97,14 %
09.04.2026 11:46 16,5 °C 19,4 °C 13,3 °C 50 % 1019,9 hPa 0,0 l/m² 2 min 573 W/m² 16,1 km/h (3 Bft) 94,00 %
09.04.2026 11:48 16,6 °C 20,0 °C 13,9 °C 50 % 1020,0 hPa 0,0 l/m² 2 min 607 W/m² 16,1 km/h (3 Bft) 97,83 %
09.04.2026 11:50 16,7 °C 21,1 °C 14,4 °C 50 % 1019,8 hPa 0,0 l/m² 2 min 685 W/m² 22,5 km/h (4 Bft) 98,00 %
09.04.2026 11:52 16,8 °C 21,1 °C 15,6 °C 50 % 1019,8 hPa 0,0 l/m² 2 min 754 W/m² 19,3 km/h (3 Bft) 95,74 %
09.04.2026 11:54 16,9 °C 21,1 °C 16,1 °C 50 % 1019,8 hPa 0,0 l/m² 2 min 798 W/m² 16,1 km/h (3 Bft) 97,87 %
09.04.2026 11:56 17,1 °C 21,1 °C 17,2 °C 50 % 1019,8 hPa 0,0 l/m² 2 min 765 W/m² 19,3 km/h (3 Bft) 95,74 %
09.04.2026 11:58 17,2 °C 21,1 °C 16,7 °C 50 % 1019,7 hPa 0,0 l/m² 2 min 585 W/m² 12,9 km/h (3 Bft) 98,00 %
09.04.2026 12:00 17,3 °C 21,1 °C 16,1 °C 50 % 1019,8 hPa 0,0 l/m² 2 min 470 W/m² 12,9 km/h (3 Bft) 97,87 %
09.04.2026 12:02 17,4 °C 20,6 °C 15,6 °C 49 % 1019,7 hPa 0,0 l/m² 2 min 424 W/m² 16,1 km/h (3 Bft) 100,00 %
09.04.2026 12:04 17,5 °C 20,0 °C 15,6 °C 49 % 1019,7 hPa 0,0 l/m² 2 min 384 W/m² 19,3 km/h (3 Bft) 97,44 %
09.04.2026 12:06 17,6 °C 20,0 °C 15,0 °C 49 % 1019,7 hPa 0,0 l/m² 2 min 376 W/m² 12,9 km/h (3 Bft) 98,33 %
09.04.2026 12:08 17,6 °C 21,1 °C 15,0 °C 50 % 1019,6 hPa 0,0 l/m² 2 min 506 W/m² 6,4 km/h (2 Bft) 97,37 %
09.04.2026 12:10 17,6 °C 22,2 °C 15,6 °C 50 % 1019,6 hPa 0,0 l/m² 2 min 560 W/m² 19,3 km/h (3 Bft) 97,87 %
09.04.2026 12:12 17,7 °C 22,8 °C 16,1 °C 49 % 1019,6 hPa 0,0 l/m² 2 min 588 W/m² 16,1 km/h (3 Bft) 100,00 %
09.04.2026 12:14 17,7 °C 23,3 °C 16,7 °C 49 % 1019,5 hPa 0,0 l/m² 2 min 582 W/m² 9,7 km/h (2 Bft) 95,74 %
09.04.2026 12:16 17,8 °C 23,3 °C 17,2 °C 49 % 1019,5 hPa 0,0 l/m² 2 min 600 W/m² 12,9 km/h (3 Bft) 94,00 %
09.04.2026 12:18 17,9 °C 24,4 °C 17,8 °C 49 % 1019,5 hPa 0,0 l/m² 2 min 578 W/m² 19,3 km/h (3 Bft) 97,83 %
09.04.2026 12:20 18,0 °C 25,0 °C 18,9 °C 49 % 1019,5 hPa 0,0 l/m² 2 min 770 W/m² 16,1 km/h (3 Bft) 97,87 %
09.04.2026 12:22 18,2 °C 25,6 °C 19,4 °C 48 % 1019,5 hPa 0,0 l/m² 2 min 786 W/m² 19,3 km/h (3 Bft) 96,00 %
09.04.2026 12:24 18,3 °C 25,6 °C 20,0 °C 48 % 1019,4 hPa 0,0 l/m² 2 min 676 W/m² 12,9 km/h (3 Bft) 97,37 %
09.04.2026 12:26 18,4 °C 24,4 °C 19,4 °C 49 % 1019,4 hPa 0,0 l/m² 2 min 586 W/m² 16,1 km/h (3 Bft) 95,74 %
09.04.2026 12:28 18,6 °C 23,9 °C 18,9 °C 48 % 1019,5 hPa 0,0 l/m² 2 min 512 W/m² 12,9 km/h (3 Bft) 95,74 %
09.04.2026 12:30 18,6 °C 23,3 °C 18,3 °C 48 % 1019,4 hPa 0,0 l/m² 2 min 613 W/m² 22,5 km/h (4 Bft) 95,74 %
09.04.2026 12:32 18,7 °C 23,9 °C 18,9 °C 48 % 1019,4 hPa 0,0 l/m² 2 min 642 W/m² 12,9 km/h (3 Bft) 98,00 %
09.04.2026 12:34 18,8 °C 24,4 °C 18,9 °C 47 % 1019,4 hPa 0,0 l/m² 2 min 665 W/m² 19,3 km/h (3 Bft) 93,62 %
09.04.2026 12:36 18,9 °C 23,9 °C 18,3 °C 47 % 1019,4 hPa 0,0 l/m² 2 min 620 W/m² 12,9 km/h (3 Bft) 95,92 %
09.04.2026 12:38 19,0 °C 24,4 °C 18,3 °C 47 % 1019,3 hPa 0,0 l/m² 2 min 684 W/m² 9,7 km/h (2 Bft) 95,74 %
09.04.2026 12:40 19,1 °C 23,9 °C 18,9 °C 47 % 1019,3 hPa 0,0 l/m² 2 min 575 W/m² 19,3 km/h (3 Bft) 95,74 %
09.04.2026 12:42 19,2 °C 23,9 °C 18,9 °C 47 % 1019,2 hPa 0,0 l/m² 2 min 542 W/m² 12,9 km/h (3 Bft) 94,74 %
09.04.2026 12:44 19,3 °C 23,3 °C 18,3 °C 46 % 1019,2 hPa 0,0 l/m² 2 min 597 W/m² 16,1 km/h (3 Bft) 94,00 %
09.04.2026 12:46 19,3 °C 23,3 °C 18,3 °C 47 % 1019,1 hPa 0,0 l/m² 2 min 546 W/m² 19,3 km/h (3 Bft) 94,00 %
09.04.2026 12:48 19,4 °C 24,4 °C 18,3 °C 46 % 1019,1 hPa 0,0 l/m² 2 min 549 W/m² 9,7 km/h (2 Bft) 97,87 %
09.04.2026 12:50 19,4 °C 23,9 °C 18,3 °C 46 % 1019,1 hPa 0,0 l/m² 2 min 557 W/m² 16,1 km/h (3 Bft) 93,88 %
09.04.2026 12:52 19,5 °C 23,3 °C 18,3 °C 45 % 1019,1 hPa 0,0 l/m² 2 min 560 W/m² 16,1 km/h (3 Bft) 91,67 %
09.04.2026 12:54 19,5 °C 23,3 °C 18,3 °C 46 % 1019,1 hPa 0,0 l/m² 2 min 700 W/m² 12,9 km/h (3 Bft) 96,15 %
09.04.2026 12:56 19,6 °C 23,9 °C 18,3 °C 46 % 1019,0 hPa 0,0 l/m² 2 min 700 W/m² 12,9 km/h (3 Bft) 95,74 %
09.04.2026 12:58 19,6 °C 23,3 °C 18,3 °C 46 % 1019,1 hPa 0,0 l/m² 2 min 599 W/m² 16,1 km/h (3 Bft) 93,62 %
09.04.2026 13:00 19,6 °C 23,3 °C 18,3 °C 46 % 1019,0 hPa 0,0 l/m² 2 min 438 W/m² 12,9 km/h (3 Bft) 95,74 %
09.04.2026 13:02 19,7 °C 23,3 °C 17,8 °C 45 % 1019,0 hPa 0,0 l/m² 2 min 499 W/m² 12,9 km/h (3 Bft) 91,49 %
09.04.2026 13:04 19,7 °C 22,8 °C 17,8 °C 46 % 1019,0 hPa 0,0 l/m² 2 min 378 W/m² 12,9 km/h (3 Bft) 93,62 %
09.04.2026 13:06 19,7 °C 22,8 °C 17,2 °C 45 % 1018,9 hPa 0,0 l/m² 2 min 358 W/m² 19,3 km/h (3 Bft) 95,74 %
09.04.2026 13:08 19,7 °C 23,9 °C 17,2 °C 46 % 1018,9 hPa 0,0 l/m² 2 min 436 W/m² 9,7 km/h (2 Bft) 93,62 %
09.04.2026 13:10 19,8 °C 26,1 °C 17,2 °C 46 % 1018,8 hPa 0,0 l/m² 2 min 689 W/m² 12,9 km/h (3 Bft) 93,48 %
09.04.2026 13:12 19,8 °C 26,7 °C 17,8 °C 46 % 1018,8 hPa 0,0 l/m² 2 min 804 W/m² 16,1 km/h (3 Bft) 93,62 %
09.04.2026 13:14 19,9 °C 26,7 °C 17,8 °C 46 % 1018,8 hPa 0,0 l/m² 2 min 683 W/m² 19,3 km/h (3 Bft) 95,74 %
09.04.2026 13:16 20,0 °C 25,6 °C 17,8 °C 45 % 1018,7 hPa 0,0 l/m² 2 min 584 W/m² 12,9 km/h (3 Bft) 93,62 %
09.04.2026 13:18 20,1 °C 25,0 °C 17,8 °C 46 % 1018,7 hPa 0,0 l/m² 2 min 508 W/m² 9,7 km/h (2 Bft) 92,00 %
09.04.2026 13:20 20,1 °C 26,1 °C 18,3 °C 46 % 1018,7 hPa 0,0 l/m² 2 min 623 W/m² 9,7 km/h (2 Bft) 93,62 %
09.04.2026 13:22 20,1 °C 26,1 °C 18,3 °C 46 % 1018,7 hPa 0,0 l/m² 2 min 660 W/m² 16,1 km/h (3 Bft) 91,49 %
09.04.2026 13:24 20,2 °C 26,7 °C 18,9 °C 46 % 1018,6 hPa 0,0 l/m² 2 min 757 W/m² 19,3 km/h (3 Bft) 93,88 %
09.04.2026 13:26 20,3 °C 27,2 °C 20,0 °C 46 % 1018,6 hPa 0,0 l/m² 2 min 743 W/m² 12,9 km/h (3 Bft) 97,22 %
09.04.2026 13:28 20,4 °C 27,8 °C 20,6 °C 46 % 1018,6 hPa 0,0 l/m² 2 min 790 W/m² 16,1 km/h (3 Bft) 94,23 %
09.04.2026 13:30 20,6 °C 28,3 °C 20,6 °C 45 % 1018,6 hPa 0,0 l/m² 2 min 750 W/m² 9,7 km/h (2 Bft) 95,74 %
09.04.2026 13:32 20,7 °C 28,3 °C 21,7 °C 45 % 1018,6 hPa 0,0 l/m² 2 min 737 W/m² 12,9 km/h (3 Bft) 95,74 %
09.04.2026 13:34 20,8 °C 27,2 °C 21,1 °C 45 % 1018,6 hPa 0,0 l/m² 2 min 592 W/m² 12,9 km/h (3 Bft) 93,62 %
09.04.2026 13:36 20,8 °C 26,1 °C 20,6 °C 45 % 1018,6 hPa 0,0 l/m² 2 min 499 W/m² 6,4 km/h (2 Bft) 97,78 %
09.04.2026 13:38 20,8 °C 25,6 °C 20,0 °C 45 % 1018,5 hPa 0,0 l/m² 2 min 454 W/m² 16,1 km/h (3 Bft) 98,00 %
09.04.2026 13:40 20,8 °C 26,1 °C 19,4 °C 45 % 1018,5 hPa 0,0 l/m² 2 min 582 W/m² 9,7 km/h (2 Bft) 95,74 %
09.04.2026 13:42 20,8 °C 26,7 °C 19,4 °C 44 % 1018,5 hPa 0,0 l/m² 2 min 732 W/m² 16,1 km/h (3 Bft) 97,96 %
09.04.2026 13:44 20,9 °C 26,7 °C 18,9 °C 44 % 1018,5 hPa 0,0 l/m² 2 min 764 W/m² 16,1 km/h (3 Bft) 97,87 %
09.04.2026 13:46 21,0 °C 26,7 °C 18,9 °C 45 % 1018,5 hPa 0,0 l/m² 2 min 637 W/m² 12,9 km/h (3 Bft) 95,74 %
09.04.2026 13:48 21,1 °C 27,8 °C 18,3 °C 45 % 1018,4 hPa 0,0 l/m² 2 min 645 W/m² 12,9 km/h (3 Bft) 95,74 %
09.04.2026 13:50 21,1 °C 27,8 °C 18,3 °C 44 % 1018,4 hPa 0,0 l/m² 2 min 744 W/m² 12,9 km/h (3 Bft) 97,73 %
09.04.2026 13:52 21,2 °C 28,9 °C 18,3 °C 44 % 1018,4 hPa 0,0 l/m² 2 min 783 W/m² 9,7 km/h (2 Bft) 98,00 %
09.04.2026 13:54 21,3 °C 29,4 °C 18,3 °C 44 % 1018,4 hPa 0,0 l/m² 2 min 850 W/m² 12,9 km/h (3 Bft) 98,00 %
09.04.2026 13:56 21,3 °C 28,9 °C 18,3 °C 43 % 1018,3 hPa 0,0 l/m² 2 min 779 W/m² 19,3 km/h (3 Bft) 97,87 %
09.04.2026 13:58 21,4 °C 28,9 °C 18,3 °C 43 % 1018,3 hPa 0,0 l/m² 2 min 745 W/m² 12,9 km/h (3 Bft) 100,00 %
09.04.2026 14:00 21,5 °C 28,3 °C 18,3 °C 43 % 1018,2 hPa 0,0 l/m² 2 min 726 W/m² 19,3 km/h (3 Bft) 100,00 %
09.04.2026 14:02 21,6 °C 28,3 °C 18,3 °C 42 % 1018,2 hPa 0,0 l/m² 2 min 771 W/m² 16,1 km/h (3 Bft) 97,37 %
09.04.2026 14:04 21,6 °C 28,3 °C 18,3 °C 42 % 1018,2 hPa 0,0 l/m² 2 min 697 W/m² 16,1 km/h (3 Bft) 100,00 %
09.04.2026 14:06 21,7 °C 28,9 °C 18,3 °C 42 % 1018,2 hPa 0,0 l/m² 2 min 781 W/m² 22,5 km/h (4 Bft) 95,74 %
09.04.2026 14:08 21,7 °C 28,9 °C 18,3 °C 43 % 1018,2 hPa 0,0 l/m² 2 min 814 W/m² 19,3 km/h (3 Bft) 100,00 %
09.04.2026 14:10 21,8 °C 28,9 °C 18,3 °C 42 % 1018,1 hPa 0,0 l/m² 2 min 784 W/m² 16,1 km/h (3 Bft) 100,00 %
09.04.2026 14:12 21,9 °C 28,3 °C 18,3 °C 42 % 1018,1 hPa 0,0 l/m² 2 min 739 W/m² 19,3 km/h (3 Bft) 100,00 %
09.04.2026 14:14 21,9 °C 27,8 °C 17,8 °C 41 % 1018,0 hPa 0,0 l/m² 2 min 694 W/m² 22,5 km/h (4 Bft) 100,00 %
09.04.2026 14:16 21,9 °C 27,2 °C 17,8 °C 41 % 1018,0 hPa 0,0 l/m² 2 min 661 W/m² 19,3 km/h (3 Bft) 97,56 %
09.04.2026 14:18 22,0 °C 27,2 °C 17,8 °C 42 % 1018,0 hPa 0,0 l/m² 2 min 654 W/m² 16,1 km/h (3 Bft) 100,00 %
09.04.2026 14:20 22,1 °C 27,2 °C 17,8 °C 42 % 1017,9 hPa 0,0 l/m² 2 min 620 W/m² 12,9 km/h (3 Bft) 100,00 %
09.04.2026 14:22 22,1 °C 27,2 °C 17,8 °C 42 % 1017,9 hPa 0,0 l/m² 2 min 594 W/m² 16,1 km/h (3 Bft) 96,43 %
09.04.2026 14:24 22,1 °C 27,2 °C 17,8 °C 41 % 1017,9 hPa 0,0 l/m² 2 min 575 W/m² 19,3 km/h (3 Bft) 100,00 %
09.04.2026 14:26 22,1 °C 27,2 °C 17,8 °C 42 % 1017,9 hPa 0,0 l/m² 2 min 634 W/m² 16,1 km/h (3 Bft) 100,00 %
09.04.2026 14:28 22,2 °C 27,2 °C 17,2 °C 42 % 1017,9 hPa 0,0 l/m² 2 min 607 W/m² 16,1 km/h (3 Bft) 100,00 %
09.04.2026 14:30 22,2 °C 27,2 °C 17,8 °C 42 % 1017,9 hPa 0,0 l/m² 2 min 618 W/m² 12,9 km/h (3 Bft) 100,00 %
09.04.2026 14:32 22,2 °C 27,2 °C 17,2 °C 42 % 1017,9 hPa 0,0 l/m² 2 min 622 W/m² 22,5 km/h (4 Bft) 100,00 %
09.04.2026 14:34 22,3 °C 28,3 °C 17,8 °C 42 % 1017,9 hPa 0,0 l/m² 2 min 632 W/m² 12,9 km/h (3 Bft) 100,00 %
09.04.2026 14:36 22,3 °C 27,8 °C 17,8 °C 42 % 1017,9 hPa 0,0 l/m² 2 min 639 W/m² 22,5 km/h (4 Bft) 97,87 %
09.04.2026 14:38 22,3 °C 27,8 °C 17,8 °C 42 % 1017,9 hPa 0,0 l/m² 2 min 656 W/m² 19,3 km/h (3 Bft) 100,00 %
09.04.2026 14:40 22,4 °C 27,8 °C 17,8 °C 42 % 1017,9 hPa 0,0 l/m² 2 min 684 W/m² 16,1 km/h (3 Bft) 100,00 %
09.04.2026 14:42 22,4 °C 27,8 °C 17,8 °C 42 % 1017,8 hPa 0,0 l/m² 2 min 696 W/m² 19,3 km/h (3 Bft) 100,00 %
09.04.2026 14:44 22,4 °C 28,3 °C 17,8 °C 42 % 1017,8 hPa 0,0 l/m² 2 min 658 W/m² 16,1 km/h (3 Bft) 100,00 %
09.04.2026 14:46 22,5 °C 28,3 °C 17,8 °C 43 % 1017,8 hPa 0,0 l/m² 2 min 593 W/m² 9,7 km/h (2 Bft) 100,00 %
09.04.2026 14:48 22,6 °C 28,3 °C 17,8 °C 42 % 1017,8 hPa 0,0 l/m² 2 min 651 W/m² 22,5 km/h (4 Bft) 100,00 %
09.04.2026 14:50 22,6 °C 27,8 °C 17,8 °C 42 % 1017,8 hPa 0,0 l/m² 2 min 618 W/m² 16,1 km/h (3 Bft) 100,00 %
09.04.2026 14:52 22,7 °C 27,2 °C 17,8 °C 41 % 1017,7 hPa 0,0 l/m² 2 min 648 W/m² 16,1 km/h (3 Bft) 100,00 %
09.04.2026 14:54 22,7 °C 28,3 °C 17,8 °C 42 % 1017,7 hPa 0,0 l/m² 2 min 720 W/m² 19,3 km/h (3 Bft) 100,00 %
09.04.2026 14:56 22,8 °C 28,3 °C 18,3 °C 41 % 1017,7 hPa 0,0 l/m² 2 min 699 W/m² 19,3 km/h (3 Bft) 97,87 %
09.04.2026 14:58 22,8 °C 28,9 °C 18,3 °C 42 % 1017,7 hPa 0,0 l/m² 2 min 755 W/m² 9,7 km/h (2 Bft) 100,00 %
09.04.2026 15:00 22,9 °C 28,9 °C 18,3 °C 42 % 1017,6 hPa 0,0 l/m² 2 min 776 W/m² 16,1 km/h (3 Bft) 100,00 %
09.04.2026 15:02 22,9 °C 29,4 °C 18,3 °C 42 % 1017,5 hPa 0,0 l/m² 2 min 793 W/m² 12,9 km/h (3 Bft) 100,00 %
09.04.2026 15:04 23,1 °C 29,4 °C 18,9 °C 42 % 1017,5 hPa 0,0 l/m² 2 min 749 W/m² 12,9 km/h (3 Bft) 100,00 %
09.04.2026 15:06 23,2 °C 29,4 °C 18,9 °C 42 % 1017,5 hPa 0,0 l/m² 2 min 730 W/m² 12,9 km/h (3 Bft) 100,00 %
09.04.2026 15:08 23,2 °C 28,9 °C 18,9 °C 41 % 1017,5 hPa 0,0 l/m² 2 min 739 W/m² 12,9 km/h (3 Bft) 100,00 %
09.04.2026 15:10 23,3 °C 29,4 °C 18,9 °C 42 % 1017,5 hPa 0,0 l/m² 2 min 737 W/m² 12,9 km/h (3 Bft) 95,74 %
09.04.2026 15:12 23,3 °C 28,9 °C 18,9 °C 41 % 1017,5 hPa 0,0 l/m² 2 min 723 W/m² 12,9 km/h (3 Bft) 94,74 %
09.04.2026 15:14 23,4 °C 29,4 °C 18,9 °C 41 % 1017,4 hPa 0,0 l/m² 2 min 722 W/m² 19,3 km/h (3 Bft) 97,87 %
09.04.2026 15:16 23,4 °C 28,9 °C 18,9 °C 41 % 1017,4 hPa 0,0 l/m² 2 min 759 W/m² 12,9 km/h (3 Bft) 97,87 %
09.04.2026 15:18 23,5 °C 28,9 °C 19,4 °C 40 % 1017,3 hPa 0,0 l/m² 2 min 774 W/m² 12,9 km/h (3 Bft) 98,00 %
09.04.2026 15:20 23,6 °C 29,4 °C 19,4 °C 41 % 1017,3 hPa 0,0 l/m² 2 min 750 W/m² 9,7 km/h (2 Bft) 93,62 %
09.04.2026 15:22 23,6 °C 28,3 °C 19,4 °C 41 % 1017,3 hPa 0,0 l/m² 2 min 735 W/m² 16,1 km/h (3 Bft) 96,15 %
09.04.2026 15:24 23,6 °C 27,8 °C 19,4 °C 41 % 1017,2 hPa 0,0 l/m² 2 min 637 W/m² 19,3 km/h (3 Bft) 95,74 %
09.04.2026 15:26 23,6 °C 27,2 °C 19,4 °C 41 % 1017,2 hPa 0,0 l/m² 2 min 565 W/m² 16,1 km/h (3 Bft) 95,12 %
09.04.2026 15:28 23,6 °C 26,1 °C 18,9 °C 41 % 1017,2 hPa 0,0 l/m² 2 min 485 W/m² 19,3 km/h (3 Bft) 93,62 %
09.04.2026 15:30 23,6 °C 26,1 °C 18,9 °C 41 % 1017,2 hPa 0,0 l/m² 2 min 437 W/m² 9,7 km/h (2 Bft) 95,24 %
09.04.2026 15:32 23,6 °C 25,0 °C 18,9 °C 41 % 1017,2 hPa 0,0 l/m² 2 min 420 W/m² 16,1 km/h (3 Bft) 94,92 %
09.04.2026 15:34 23,5 °C 25,0 °C 18,9 °C 40 % 1017,2 hPa 0,0 l/m² 2 min 416 W/m² 16,1 km/h (3 Bft) 93,62 %
09.04.2026 15:36 23,4 °C 25,0 °C 18,9 °C 40 % 1017,1 hPa 0,0 l/m² 2 min 407 W/m² 12,9 km/h (3 Bft) 100,00 %
09.04.2026 15:38 23,4 °C 24,4 °C 18,9 °C 40 % 1017,1 hPa 0,0 l/m² 2 min 386 W/m² 16,1 km/h (3 Bft) 91,49 %
09.04.2026 15:40 23,4 °C 23,9 °C 18,9 °C 40 % 1017,1 hPa 0,0 l/m² 2 min 360 W/m² 19,3 km/h (3 Bft) 93,88 %
09.04.2026 15:42 23,3 °C 23,9 °C 18,9 °C 41 % 1017,1 hPa 0,0 l/m² 2 min 333 W/m² 16,1 km/h (3 Bft) 91,11 %
09.04.2026 15:44 23,3 °C 23,9 °C 18,9 °C 41 % 1017,1 hPa 0,0 l/m² 2 min 316 W/m² 12,9 km/h (3 Bft) 93,62 %
09.04.2026 15:46 23,2 °C 23,3 °C 18,3 °C 41 % 1017,1 hPa 0,0 l/m² 0 min 304 W/m² 22,5 km/h (4 Bft) 93,62 %
09.04.2026 15:48 23,2 °C 23,3 °C 18,3 °C 41 % 1017,0 hPa 0,0 l/m² 0 min 290 W/m² 12,9 km/h (3 Bft) 93,62 %
09.04.2026 15:50 23,1 °C 23,3 °C 18,3 °C 41 % 1017,1 hPa 0,0 l/m² 0 min 281 W/m² 9,7 km/h (2 Bft) 94,00 %
09.04.2026 15:52 23,0 °C 22,8 °C 18,3 °C 41 % 1017,0 hPa 0,0 l/m² 0 min 276 W/m² 9,7 km/h (2 Bft) 92,00 %
09.04.2026 15:54 22,9 °C 22,8 °C 18,3 °C 41 % 1017,0 hPa 0,0 l/m² 0 min 276 W/m² 16,1 km/h (3 Bft) 95,65 %
09.04.2026 15:56 22,9 °C 22,8 °C 18,3 °C 42 % 1017,0 hPa 0,0 l/m² 0 min 278 W/m² 9,7 km/h (2 Bft) 100,00 %
09.04.2026 15:58 22,8 °C 22,8 °C 18,3 °C 42 % 1017,0 hPa 0,0 l/m² 0 min 276 W/m² 12,9 km/h (3 Bft) 95,92 %
09.04.2026 16:00 22,8 °C 22,8 °C 18,3 °C 42 % 1017,0 hPa 0,0 l/m² 0 min 269 W/m² 9,7 km/h (2 Bft) 97,87 %
09.04.2026 16:02 22,7 °C 22,8 °C 18,3 °C 42 % 1016,9 hPa 0,0 l/m² 0 min 267 W/m² 12,9 km/h (3 Bft) 96,00 %
09.04.2026 16:04 22,7 °C 22,8 °C 17,8 °C 42 % 1017,0 hPa 0,0 l/m² 0 min 274 W/m² 16,1 km/h (3 Bft) 97,87 %
09.04.2026 16:06 22,6 °C 22,8 °C 17,8 °C 42 % 1016,9 hPa 0,0 l/m² 0 min 286 W/m² 12,9 km/h (3 Bft) 97,87 %
09.04.2026 16:08 22,6 °C 22,8 °C 18,3 °C 42 % 1016,9 hPa 0,0 l/m² 2 min 293 W/m² 9,7 km/h (2 Bft) 97,78 %
09.04.2026 16:10 22,6 °C 23,3 °C 18,3 °C 42 % 1016,8 hPa 0,0 l/m² 2 min 291 W/m² 9,7 km/h (2 Bft) 98,11 %
09.04.2026 16:12 22,6 °C 23,3 °C 18,3 °C 43 % 1016,8 hPa 0,0 l/m² 0 min 279 W/m² 12,9 km/h (3 Bft) 97,96 %
09.04.2026 16:14 22,6 °C 22,8 °C 17,8 °C 42 % 1016,8 hPa 0,0 l/m² 0 min 267 W/m² 12,9 km/h (3 Bft) 97,22 %
09.04.2026 16:16 22,6 °C 22,8 °C 18,3 °C 43 % 1016,8 hPa 0,0 l/m² 0 min 255 W/m² 12,9 km/h (3 Bft) 97,96 %
09.04.2026 16:18 22,6 °C 22,8 °C 18,3 °C 43 % 1016,8 hPa 0,0 l/m² 0 min 246 W/m² 12,9 km/h (3 Bft) 98,00 %
09.04.2026 16:20 22,5 °C 22,8 °C 17,8 °C 43 % 1016,8 hPa 0,0 l/m² 0 min 230 W/m² 9,7 km/h (2 Bft) 97,87 %
09.04.2026 16:22 22,5 °C 22,2 °C 17,8 °C 43 % 1016,8 hPa 0,0 l/m² 0 min 217 W/m² 12,9 km/h (3 Bft) 95,74 %
09.04.2026 16:24 22,4 °C 22,2 °C 17,8 °C 43 % 1016,8 hPa 0,0 l/m² 0 min 205 W/m² 9,7 km/h (2 Bft) 98,00 %
09.04.2026 16:26 22,4 °C 22,2 °C 17,8 °C 43 % 1016,8 hPa 0,0 l/m² 0 min 199 W/m² 12,9 km/h (3 Bft) 97,87 %
09.04.2026 16:28 22,4 °C 22,2 °C 17,8 °C 43 % 1016,8 hPa 0,0 l/m² 0 min 203 W/m² 9,7 km/h (2 Bft) 100,00 %
09.04.2026 16:30 22,4 °C 22,2 °C 17,8 °C 43 % 1016,8 hPa 0,0 l/m² 0 min 209 W/m² 9,7 km/h (2 Bft) 95,74 %
09.04.2026 16:32 22,4 °C 22,8 °C 17,8 °C 43 % 1016,7 hPa 0,0 l/m² 0 min 218 W/m² 12,9 km/h (3 Bft) 97,83 %
09.04.2026 16:34 22,4 °C 22,2 °C 17,8 °C 43 % 1016,7 hPa 0,0 l/m² 0 min 205 W/m² 12,9 km/h (3 Bft) 97,87 %
09.04.2026 16:36 22,4 °C 22,2 °C 17,8 °C 43 % 1016,6 hPa 0,0 l/m² 0 min 201 W/m² 6,4 km/h (2 Bft) 100,00 %
09.04.2026 16:38 22,4 °C 22,2 °C 17,8 °C 43 % 1016,6 hPa 0,0 l/m² 0 min 197 W/m² 6,4 km/h (2 Bft) 100,00 %
09.04.2026 16:40 22,4 °C 22,2 °C 17,8 °C 43 % 1016,6 hPa 0,0 l/m² 0 min 197 W/m² 9,7 km/h (2 Bft) 100,00 %
09.04.2026 16:42 22,3 °C 22,2 °C 17,8 °C 43 % 1016,6 hPa 0,0 l/m² 0 min 200 W/m² 12,9 km/h (3 Bft) 95,74 %
09.04.2026 16:44 22,3 °C 22,2 °C 17,8 °C 43 % 1016,5 hPa 0,0 l/m² 0 min 206 W/m² 3,2 km/h (1 Bft) 100,00 %
09.04.2026 16:46 22,3 °C 22,2 °C 17,8 °C 44 % 1016,5 hPa 0,0 l/m² 0 min 210 W/m² 9,7 km/h (2 Bft) 100,00 %
09.04.2026 16:48 22,3 °C 22,2 °C 17,8 °C 44 % 1016,5 hPa 0,0 l/m² 0 min 208 W/m² 6,4 km/h (2 Bft) 100,00 %
09.04.2026 16:50 22,3 °C 22,2 °C 17,8 °C 44 % 1016,5 hPa 0,0 l/m² 0 min 206 W/m² 12,9 km/h (3 Bft) 100,00 %
09.04.2026 16:52 22,2 °C 22,2 °C 17,2 °C 44 % 1016,5 hPa 0,0 l/m² 0 min 204 W/m² 9,7 km/h (2 Bft) 100,00 %
09.04.2026 16:54 22,2 °C 22,2 °C 17,8 °C 44 % 1016,5 hPa 0,0 l/m² 0 min 203 W/m² 6,4 km/h (2 Bft) 100,00 %
09.04.2026 16:56 22,2 °C 22,2 °C 17,2 °C 44 % 1016,4 hPa 0,0 l/m² 0 min 200 W/m² 6,4 km/h (2 Bft) 100,00 %
09.04.2026 16:58 22,2 °C 22,2 °C 17,8 °C 45 % 1016,4 hPa 0,0 l/m² 0 min 205 W/m² 12,9 km/h (3 Bft) 97,87 %
09.04.2026 17:00 22,2 °C 22,2 °C 17,8 °C 44 % 1016,4 hPa 0,0 l/m² 0 min 210 W/m² 9,7 km/h (2 Bft) 100,00 %
09.04.2026 17:02 22,2 °C 22,2 °C 17,2 °C 44 % 1016,3 hPa 0,0 l/m² 0 min 212 W/m² 12,9 km/h (3 Bft) 100,00 %
09.04.2026 17:04 22,1 °C 22,2 °C 17,8 °C 45 % 1016,3 hPa 0,0 l/m² 0 min 205 W/m² 16,1 km/h (3 Bft) 100,00 %
09.04.2026 17:06 22,1 °C 22,2 °C 17,2 °C 45 % 1016,4 hPa 0,0 l/m² 0 min 191 W/m² 6,4 km/h (2 Bft) 100,00 %
09.04.2026 17:08 22,1 °C 22,2 °C 17,2 °C 45 % 1016,3 hPa 0,0 l/m² 0 min 181 W/m² 6,4 km/h (2 Bft) 100,00 %
09.04.2026 17:10 22,1 °C 22,2 °C 17,8 °C 46 % 1016,2 hPa 0,0 l/m² 0 min 178 W/m² 6,4 km/h (2 Bft) 100,00 %
09.04.2026 17:12 22,1 °C 22,2 °C 17,2 °C 45 % 1016,2 hPa 0,0 l/m² 0 min 180 W/m² 6,4 km/h (2 Bft) 100,00 %
09.04.2026 17:14 22,1 °C 22,2 °C 17,8 °C 45 % 1016,2 hPa 0,0 l/m² 0 min 181 W/m² 6,4 km/h (2 Bft) 95,74 %
09.04.2026 17:16 22,1 °C 22,2 °C 17,2 °C 45 % 1016,2 hPa 0,0 l/m² 0 min 180 W/m² 3,2 km/h (1 Bft) 100,00 %
09.04.2026 17:18 22,1 °C 22,2 °C 17,2 °C 46 % 1016,2 hPa 0,0 l/m² 0 min 177 W/m² 12,9 km/h (3 Bft) 100,00 %
09.04.2026 17:20 22,1 °C 22,2 °C 17,2 °C 45 % 1016,1 hPa 0,0 l/m² 0 min 171 W/m² 12,9 km/h (3 Bft) 100,00 %
09.04.2026 17:22 22,1 °C 22,2 °C 17,2 °C 46 % 1016,1 hPa 0,0 l/m² 0 min 165 W/m² 9,7 km/h (2 Bft) 100,00 %
09.04.2026 17:24 22,1 °C 22,2 °C 17,2 °C 46 % 1016,1 hPa 0,0 l/m² 0 min 159 W/m² 9,7 km/h (2 Bft) 97,22 %
09.04.2026 17:26 22,1 °C 22,2 °C 17,2 °C 46 % 1016,1 hPa 0,0 l/m² 0 min 155 W/m² 6,4 km/h (2 Bft) 97,96 %
09.04.2026 17:28 22,1 °C 22,2 °C 17,2 °C 46 % 1016,1 hPa 0,0 l/m² 0 min 153 W/m² 6,4 km/h (2 Bft) 97,78 %
09.04.2026 17:30 22,1 °C 22,2 °C 17,2 °C 45 % 1016,1 hPa 0,0 l/m² 0 min 151 W/m² 3,2 km/h (1 Bft) 97,87 %
09.04.2026 17:32 22,1 °C 22,2 °C 17,2 °C 45 % 1016,0 hPa 0,0 l/m² 0 min 151 W/m² 9,7 km/h (2 Bft) 100,00 %
09.04.2026 17:34 22,1 °C 22,2 °C 17,2 °C 45 % 1015,9 hPa 0,0 l/m² 0 min 151 W/m² 3,2 km/h (1 Bft) 95,74 %
09.04.2026 17:36 22,1 °C 22,2 °C 17,2 °C 45 % 1015,9 hPa 0,0 l/m² 0 min 150 W/m² 12,9 km/h (3 Bft) 97,87 %
09.04.2026 17:38 22,1 °C 21,7 °C 17,2 °C 45 % 1015,9 hPa 0,0 l/m² 0 min 145 W/m² 12,9 km/h (3 Bft) 96,00 %
09.04.2026 17:40 22,1 °C 21,7 °C 17,2 °C 45 % 1015,9 hPa 0,0 l/m² 0 min 137 W/m² 12,9 km/h (3 Bft) 95,74 %
09.04.2026 17:42 22,1 °C 21,7 °C 17,2 °C 46 % 1015,8 hPa 0,0 l/m² 0 min 137 W/m² 3,2 km/h (1 Bft) 97,83 %
09.04.2026 17:44 22,1 °C 22,2 °C 17,2 °C 46 % 1015,9 hPa 0,0 l/m² 0 min 139 W/m² 9,7 km/h (2 Bft) 96,00 %
09.04.2026 17:46 22,1 °C 21,7 °C 17,2 °C 46 % 1015,8 hPa 0,0 l/m² 0 min 132 W/m² 9,7 km/h (2 Bft) 95,74 %
09.04.2026 17:48 22,0 °C 22,2 °C 17,2 °C 46 % 1015,8 hPa 0,0 l/m² 0 min 126 W/m² 3,2 km/h (1 Bft) 95,74 %
09.04.2026 17:50 22,0 °C 21,7 °C 17,2 °C 46 % 1015,8 hPa 0,0 l/m² 0 min 118 W/m² 6,4 km/h (2 Bft) 95,74 %
09.04.2026 17:52 22,0 °C 21,7 °C 17,2 °C 46 % 1015,7 hPa 0,0 l/m² 0 min 109 W/m² 6,4 km/h (2 Bft) 95,74 %
09.04.2026 17:54 22,0 °C 21,7 °C 16,7 °C 46 % 1015,7 hPa 0,0 l/m² 0 min 99 W/m² 3,2 km/h (1 Bft) 94,00 %
09.04.2026 17:56 22,0 °C 21,7 °C 16,7 °C 47 % 1015,6 hPa 0,0 l/m² 0 min 91 W/m² 6,4 km/h (2 Bft) 95,65 %
09.04.2026 17:58 21,9 °C 21,1 °C 16,7 °C 47 % 1015,7 hPa 0,0 l/m² 0 min 90 W/m² 6,4 km/h (2 Bft) 97,87 %
09.04.2026 18:00 21,9 °C 21,1 °C 16,7 °C 47 % 1015,6 hPa 0,0 l/m² 0 min 90 W/m² 9,7 km/h (2 Bft) 95,74 %
09.04.2026 18:02 21,9 °C 21,1 °C 16,7 °C 48 % 1015,6 hPa 0,0 l/m² 0 min 91 W/m² 3,2 km/h (1 Bft) 92,11 %
09.04.2026 18:04 21,9 °C 21,1 °C 16,7 °C 48 % 1015,6 hPa 0,0 l/m² 0 min 87 W/m² 3,2 km/h (1 Bft) 98,00 %
09.04.2026 18:06 21,8 °C 21,1 °C 16,7 °C 47 % 1015,6 hPa 0,0 l/m² 0 min 81 W/m² 6,4 km/h (2 Bft) 97,92 %
09.04.2026 18:08 21,8 °C 21,1 °C 16,7 °C 47 % 1015,6 hPa 0,0 l/m² 0 min 73 W/m² 3,2 km/h (1 Bft) 97,87 %
09.04.2026 18:10 21,8 °C 20,6 °C 16,7 °C 47 % 1015,6 hPa 0,0 l/m² 0 min 66 W/m² 3,2 km/h (1 Bft) 97,87 %
09.04.2026 18:12 21,8 °C 20,6 °C 16,7 °C 47 % 1015,6 hPa 0,0 l/m² 0 min 57 W/m² 3,2 km/h (1 Bft) 95,74 %
09.04.2026 18:14 21,8 °C 20,6 °C 16,7 °C 47 % 1015,6 hPa 0,0 l/m² 0 min 53 W/m² 9,7 km/h (2 Bft) 65,96 %
09.04.2026 18:16 21,7 °C 20,6 °C 16,1 °C 47 % 1015,5 hPa 0,0 l/m² 0 min 52 W/m² 6,4 km/h (2 Bft) 86,84 %
09.04.2026 18:18 21,7 °C 20,6 °C 16,1 °C 47 % 1015,5 hPa 0,0 l/m² 0 min 51 W/m² 6,4 km/h (2 Bft) 97,87 %
09.04.2026 18:20 21,7 °C 20,6 °C 16,1 °C 47 % 1015,5 hPa 0,0 l/m² 0 min 53 W/m² 6,4 km/h (2 Bft) 97,87 %
09.04.2026 18:22 21,6 °C 20,6 °C 16,1 °C 46 % 1015,4 hPa 0,0 l/m² 0 min 60 W/m² 3,2 km/h (1 Bft) 98,00 %
09.04.2026 18:24 21,6 °C 20,6 °C 16,1 °C 47 % 1015,4 hPa 0,0 l/m² 0 min 70 W/m² 6,4 km/h (2 Bft) 97,37 %
09.04.2026 18:26 21,6 °C 20,6 °C 16,1 °C 47 % 1015,5 hPa 0,0 l/m² 0 min 83 W/m² 6,4 km/h (2 Bft) 96,36 %
09.04.2026 18:28 21,6 °C 20,6 °C 16,1 °C 47 % 1015,4 hPa 0,0 l/m² 0 min 91 W/m² 6,4 km/h (2 Bft) 97,87 %
09.04.2026 18:30 21,6 °C 20,6 °C 16,1 °C 47 % 1015,4 hPa 0,0 l/m² 0 min 91 W/m² 3,2 km/h (1 Bft) 97,87 %
09.04.2026 18:32 21,6 °C 20,6 °C 16,1 °C 48 % 1015,3 hPa 0,0 l/m² 0 min 81 W/m² 6,4 km/h (2 Bft) 100,00 %
09.04.2026 18:34 21,5 °C 20,6 °C 16,1 °C 47 % 1015,3 hPa 0,0 l/m² 0 min 73 W/m² 6,4 km/h (2 Bft) 97,22 %
09.04.2026 18:36 21,4 °C 20,6 °C 16,1 °C 48 % 1015,3 hPa 0,0 l/m² 0 min 69 W/m² 6,4 km/h (2 Bft) 97,96 %
09.04.2026 18:38 21,4 °C 20,6 °C 16,1 °C 48 % 1015,3 hPa 0,0 l/m² 0 min 69 W/m² 3,2 km/h (1 Bft) 100,00 %
09.04.2026 18:40 21,4 °C 20,6 °C 16,1 °C 48 % 1015,2 hPa 0,0 l/m² 0 min 72 W/m² 3,2 km/h (1 Bft) 100,00 %
09.04.2026 18:42 21,4 °C 20,6 °C 16,1 °C 48 % 1015,2 hPa 0,0 l/m² 0 min 77 W/m² 3,2 km/h (1 Bft) 100,00 %
09.04.2026 18:44 21,4 °C 20,6 °C 16,1 °C 47 % 1015,2 hPa 0,0 l/m² 0 min 81 W/m² 3,2 km/h (1 Bft) 97,87 %
09.04.2026 18:46 21,4 °C 20,6 °C 16,1 °C 47 % 1015,2 hPa 0,0 l/m² 0 min 80 W/m² 6,4 km/h (2 Bft) 97,87 %
09.04.2026 18:48 21,4 °C 20,6 °C 16,1 °C 47 % 1015,1 hPa 0,0 l/m² 0 min 77 W/m² 6,4 km/h (2 Bft) 100,00 %
09.04.2026 18:50 21,3 °C 20,6 °C 16,1 °C 47 % 1015,1 hPa 0,0 l/m² 0 min 72 W/m² 3,2 km/h (1 Bft) 100,00 %
09.04.2026 18:52 21,3 °C 20,6 °C 16,1 °C 47 % 1015,1 hPa 0,0 l/m² 0 min 69 W/m² 6,4 km/h (2 Bft) 95,92 %
09.04.2026 18:54 21,3 °C 20,6 °C 16,1 °C 47 % 1015,0 hPa 0,0 l/m² 0 min 66 W/m² 6,4 km/h (2 Bft) 97,87 %
09.04.2026 18:56 21,3 °C 20,6 °C 16,1 °C 47 % 1015,0 hPa 0,0 l/m² 0 min 63 W/m² 3,2 km/h (1 Bft) 97,87 %
09.04.2026 18:58 21,3 °C 20,6 °C 16,1 °C 47 % 1014,9 hPa 0,0 l/m² 0 min 62 W/m² 6,4 km/h (2 Bft) 96,00 %
09.04.2026 19:00 21,3 °C 20,6 °C 16,1 °C 47 % 1014,9 hPa 0,0 l/m² 0 min 62 W/m² 3,2 km/h (1 Bft) 97,87 %
09.04.2026 19:02 21,3 °C 20,6 °C 16,1 °C 47 % 1014,9 hPa 0,0 l/m² 0 min 61 W/m² 6,4 km/h (2 Bft) 95,74 %
09.04.2026 19:04 21,3 °C 20,6 °C 16,1 °C 47 % 1015,0 hPa 0,0 l/m² 0 min 60 W/m² 6,4 km/h (2 Bft) 94,74 %
09.04.2026 19:06 21,3 °C 20,6 °C 16,1 °C 47 % 1014,9 hPa 0,0 l/m² 0 min 60 W/m² 6,4 km/h (2 Bft) 96,55 %
09.04.2026 19:08 21,3 °C 20,6 °C 16,1 °C 47 % 1014,9 hPa 0,0 l/m² 0 min 61 W/m² 6,4 km/h (2 Bft) 95,83 %
09.04.2026 19:10 21,3 °C 20,6 °C 16,1 °C 47 % 1014,9 hPa 0,0 l/m² 0 min 62 W/m² 3,2 km/h (1 Bft) 96,72 %
09.04.2026 19:12 21,2 °C 20,6 °C 15,6 °C 47 % 1014,8 hPa 0,0 l/m² 0 min 59 W/m² 3,2 km/h (1 Bft) 95,74 %
09.04.2026 19:14 21,2 °C 20,6 °C 15,6 °C 47 % 1014,8 hPa 0,0 l/m² 0 min 55 W/m² 3,2 km/h (1 Bft) 95,74 %
09.04.2026 19:16 21,2 °C 20,6 °C 15,6 °C 47 % 1014,8 hPa 0,0 l/m² 0 min 49 W/m² 3,2 km/h (1 Bft) 98,00 %
09.04.2026 19:18 21,2 °C 20,0 °C 15,6 °C 47 % 1014,8 hPa 0,0 l/m² 0 min 47 W/m² 3,2 km/h (1 Bft) 95,74 %
09.04.2026 19:20 21,2 °C 20,0 °C 15,6 °C 47 % 1014,8 hPa 0,0 l/m² 0 min 45 W/m² 6,4 km/h (2 Bft) 95,74 %
09.04.2026 19:22 21,1 °C 20,0 °C 15,6 °C 48 % 1014,7 hPa 0,0 l/m² 0 min 42 W/m² 3,2 km/h (1 Bft) 95,74 %
09.04.2026 19:24 21,1 °C 20,0 °C 15,6 °C 48 % 1014,7 hPa 0,0 l/m² 0 min 39 W/m² 6,4 km/h (2 Bft) 95,65 %
09.04.2026 19:26 21,1 °C 20,0 °C 15,6 °C 48 % 1014,7 hPa 0,0 l/m² 0 min 36 W/m² 6,4 km/h (2 Bft) 95,74 %
09.04.2026 19:28 21,1 °C 19,4 °C 15,6 °C 48 % 1014,6 hPa 0,0 l/m² 0 min 33 W/m² 3,2 km/h (1 Bft) 93,62 %
09.04.2026 19:30 21,1 °C 19,4 °C 15,6 °C 48 % 1014,5 hPa 0,0 l/m² 0 min 30 W/m² 6,4 km/h (2 Bft) 95,74 %
09.04.2026 19:32 21,0 °C 19,4 °C 15,6 °C 48 % 1014,5 hPa 0,0 l/m² 0 min 28 W/m² 3,2 km/h (1 Bft) 95,74 %
09.04.2026 19:34 20,9 °C 19,4 °C 15,6 °C 49 % 1014,4 hPa 0,0 l/m² 0 min 28 W/m² 6,4 km/h (2 Bft) 96,00 %
09.04.2026 19:36 20,9 °C 19,4 °C 15,6 °C 49 % 1014,3 hPa 0,0 l/m² 0 min 26 W/m² 6,4 km/h (2 Bft) 95,74 %
09.04.2026 19:38 20,9 °C 19,4 °C 15,0 °C 49 % 1014,3 hPa 0,0 l/m² 0 min 26 W/m² 12,9 km/h (3 Bft) 95,74 %
09.04.2026 19:40 20,8 °C 19,4 °C 15,0 °C 49 % 1014,3 hPa 0,0 l/m² 0 min 25 W/m² 12,9 km/h (3 Bft) 95,65 %
09.04.2026 19:42 20,8 °C 19,4 °C 15,0 °C 49 % 1014,3 hPa 0,0 l/m² 0 min 25 W/m² 6,4 km/h (2 Bft) 93,62 %
09.04.2026 19:44 20,7 °C 19,4 °C 15,0 °C 49 % 1014,3 hPa 0,0 l/m² 0 min 25 W/m² 6,4 km/h (2 Bft) 97,87 %
09.04.2026 19:46 20,7 °C 18,9 °C 15,0 °C 49 % 1014,4 hPa 0,0 l/m² 0 min 24 W/m² 6,4 km/h (2 Bft) 97,87 %
09.04.2026 19:48 20,7 °C 18,9 °C 15,0 °C 49 % 1014,4 hPa 0,0 l/m² 0 min 22 W/m² 3,2 km/h (1 Bft) 95,74 %
09.04.2026 19:50 20,6 °C 18,9 °C 15,0 °C 50 % 1014,4 hPa 0,0 l/m² 0 min 20 W/m² 0,0 km/h (0 Bft) 97,87 %
09.04.2026 19:52 20,6 °C 18,9 °C 15,0 °C 50 % 1014,4 hPa 0,0 l/m² 0 min 19 W/m² 0,0 km/h (0 Bft) 97,37 %
09.04.2026 19:54 20,6 °C 18,9 °C 14,4 °C 50 % 1014,4 hPa 0,0 l/m² 0 min 17 W/m² 0,0 km/h (0 Bft) 97,87 %
09.04.2026 19:56 20,5 °C 18,9 °C 14,4 °C 50 % 1014,4 hPa 0,0 l/m² 0 min 15 W/m² 3,2 km/h (1 Bft) 100,00 %
09.04.2026 19:58 20,5 °C 18,9 °C 14,4 °C 50 % 1014,4 hPa 0,0 l/m² 0 min 13 W/m² 3,2 km/h (1 Bft) 100,00 %
09.04.2026 20:00 20,4 °C 18,9 °C 13,9 °C 50 % 1014,3 hPa 0,0 l/m² 0 min 12 W/m² 3,2 km/h (1 Bft) 100,00 %
09.04.2026 20:02 20,4 °C 18,3 °C 13,9 °C 50 % 1014,3 hPa 0,0 l/m² 0 min 11 W/m² 0,0 km/h (0 Bft) 100,00 %
09.04.2026 20:04 20,4 °C 18,3 °C 13,9 °C 50 % 1014,3 hPa 0,0 l/m² 0 min 9 W/m² 0,0 km/h (0 Bft) 100,00 %
09.04.2026 20:06 20,3 °C 18,3 °C 13,9 °C 50 % 1014,3 hPa 0,0 l/m² 0 min 7 W/m² 0,0 km/h (0 Bft) 100,00 %
09.04.2026 20:08 20,3 °C 18,3 °C 13,3 °C 52 % 1014,4 hPa 0,0 l/m² 0 min 7 W/m² 0,0 km/h (0 Bft) 100,00 %
09.04.2026 20:10 20,3 °C 17,8 °C 13,3 °C 52 % 1014,3 hPa 0,0 l/m² 0 min 5 W/m² 3,2 km/h (1 Bft) 100,00 %
09.04.2026 20:12 20,2 °C 17,8 °C 13,3 °C 52 % 1014,3 hPa 0,0 l/m² 0 min 5 W/m² 0,0 km/h (0 Bft) 97,87 %
09.04.2026 20:14 20,2 °C 17,8 °C 13,3 °C 51 % 1014,3 hPa 0,0 l/m² 0 min 0 W/m² 0,0 km/h (0 Bft) 100,00 %
09.04.2026 20:16 20,1 °C 17,8 °C 13,3 °C 51 % 1014,3 hPa 0,0 l/m² 0 min 0 W/m² 0,0 km/h (0 Bft) 100,00 %
09.04.2026 20:18 20,1 °C 17,8 °C 13,3 °C 51 % 1014,3 hPa 0,0 l/m² 0 min 0 W/m² 3,2 km/h (1 Bft) 100,00 %
09.04.2026 20:20 20,0 °C 17,8 °C 13,3 °C 51 % 1014,2 hPa 0,0 l/m² 0 min 0 W/m² 0,0 km/h (0 Bft) 98,00 %
09.04.2026 20:22 19,9 °C 17,8 °C 13,3 °C 52 % 1014,2 hPa 0,0 l/m² 0 min 0 W/m² 0,0 km/h (0 Bft) 100,00 %
09.04.2026 20:24 19,8 °C 17,8 °C 13,3 °C 52 % 1014,2 hPa 0,0 l/m² 0 min 0 W/m² 3,2 km/h (1 Bft) 97,37 %
09.04.2026 20:26 19,8 °C 17,8 °C 13,3 °C 52 % 1014,3 hPa 0,0 l/m² 0 min 0 W/m² 3,2 km/h (1 Bft) 97,87 %
09.04.2026 20:28 19,7 °C 17,8 °C 13,3 °C 52 % 1014,3 hPa 0,0 l/m² 0 min 0 W/m² 3,2 km/h (1 Bft) 98,15 %
09.04.2026 20:30 19,7 °C 17,8 °C 13,3 °C 52 % 1014,2 hPa 0,0 l/m² 0 min 0 W/m² 3,2 km/h (1 Bft) 95,74 %
09.04.2026 20:32 19,6 °C 17,8 °C 13,3 °C 53 % 1014,3 hPa 0,0 l/m² 0 min 0 W/m² 0,0 km/h (0 Bft) 100,00 %
09.04.2026 20:34 19,6 °C 17,8 °C 13,3 °C 53 % 1014,3 hPa 0,0 l/m² 0 min 0 W/m² 0,0 km/h (0 Bft) 95,92 %
09.04.2026 20:36 19,6 °C 17,8 °C 12,8 °C 53 % 1014,3 hPa 0,0 l/m² 0 min 0 W/m² 0,0 km/h (0 Bft) 97,87 %
09.04.2026 20:38 19,5 °C 17,2 °C 12,8 °C 55 % 1014,2 hPa 0,0 l/m² 0 min 0 W/m² 0,0 km/h (0 Bft) 97,87 %
09.04.2026 20:40 19,5 °C 17,2 °C 12,8 °C 56 % 1014,2 hPa 0,0 l/m² 0 min 0 W/m² 0,0 km/h (0 Bft) 97,87 %
09.04.2026 20:42 19,4 °C 17,2 °C 12,2 °C 57 % 1014,3 hPa 0,0 l/m² 0 min 0 W/m² 0,0 km/h (0 Bft) 97,87 %
09.04.2026 20:44 19,4 °C 16,7 °C 12,2 °C 57 % 1014,3 hPa 0,0 l/m² 0 min 0 W/m² 0,0 km/h (0 Bft) 97,87 %
09.04.2026 20:46 19,4 °C 16,7 °C 12,2 °C 58 % 1014,3 hPa 0,0 l/m² 0 min 0 W/m² 0,0 km/h (0 Bft) 96,00 %
09.04.2026 20:48 19,3 °C 16,7 °C 12,2 °C 58 % 1014,2 hPa 0,0 l/m² 0 min 0 W/m² 0,0 km/h (0 Bft) 95,65 %
09.04.2026 20:50 19,3 °C 16,7 °C 12,2 °C 58 % 1014,2 hPa 0,0 l/m² 0 min 0 W/m² 0,0 km/h (0 Bft) 97,87 %
09.04.2026 20:52 19,2 °C 16,7 °C 12,2 °C 58 % 1014,3 hPa 0,0 l/m² 0 min 0 W/m² 0,0 km/h (0 Bft) 97,87 %
09.04.2026 20:54 19,2 °C 16,7 °C 12,2 °C 57 % 1014,2 hPa 0,0 l/m² 0 min 0 W/m² 0,0 km/h (0 Bft) 97,87 %
09.04.2026 20:56 19,1 °C 16,7 °C 12,2 °C 57 % 1014,2 hPa 0,0 l/m² 0 min 0 W/m² 0,0 km/h (0 Bft) 98,00 %
09.04.2026 20:58 19,0 °C 16,7 °C 12,2 °C 57 % 1014,2 hPa 0,0 l/m² 0 min 0 W/m² 3,2 km/h (1 Bft) 95,74 %
09.04.2026 21:00 18,9 °C 16,7 °C 12,2 °C 57 % 1014,2 hPa 0,0 l/m² 0 min 0 W/m² 3,2 km/h (1 Bft) 95,74 %
09.04.2026 21:02 18,8 °C 17,2 °C 12,8 °C 56 % 1014,2 hPa 0,0 l/m² 0 min 0 W/m² 3,2 km/h (1 Bft) 97,87 %
09.04.2026 21:04 18,8 °C 17,2 °C 12,8 °C 55 % 1014,2 hPa 0,0 l/m² 0 min 0 W/m² 3,2 km/h (1 Bft) 95,65 %
09.04.2026 21:06 18,7 °C 17,2 °C 12,8 °C 55 % 1014,2 hPa 0,0 l/m² 0 min 0 W/m² 3,2 km/h (1 Bft) 97,87 %
09.04.2026 21:08 18,7 °C 17,2 °C 12,8 °C 54 % 1014,1 hPa 0,0 l/m² 0 min 0 W/m² 3,2 km/h (1 Bft) 97,87 %
09.04.2026 21:10 18,6 °C 17,2 °C 12,8 °C 54 % 1014,1 hPa 0,0 l/m² 0 min 0 W/m² 3,2 km/h (1 Bft) 91,43 %
09.04.2026 21:12 18,6 °C 17,2 °C 12,8 °C 54 % 1014,1 hPa 0,0 l/m² 0 min 0 W/m² 6,4 km/h (2 Bft) 98,00 %
09.04.2026 21:14 18,6 °C 17,2 °C 13,3 °C 54 % 1014,1 hPa 0,0 l/m² 0 min 0 W/m² 6,4 km/h (2 Bft) 98,11 %
09.04.2026 21:16 18,5 °C 17,2 °C 13,3 °C 54 % 1014,1 hPa 0,0 l/m² 0 min 0 W/m² 6,4 km/h (2 Bft) 100,00 %
09.04.2026 21:18 18,5 °C 17,2 °C 13,3 °C 55 % 1014,1 hPa 0,0 l/m² 0 min 0 W/m² 3,2 km/h (1 Bft) 98,00 %
09.04.2026 21:20 18,4 °C 17,2 °C 13,3 °C 54 % 1014,1 hPa 0,0 l/m² 0 min 0 W/m² 6,4 km/h (2 Bft) 97,87 %
09.04.2026 21:22 18,4 °C 17,2 °C 13,3 °C 54 % 1014,1 hPa 0,0 l/m² 0 min 0 W/m² 3,2 km/h (1 Bft) 97,83 %
09.04.2026 21:24 18,4 °C 17,2 °C 13,3 °C 55 % 1014,1 hPa 0,0 l/m² 0 min 0 W/m² 6,4 km/h (2 Bft) 97,87 %
09.04.2026 21:26 18,4 °C 17,2 °C 13,3 °C 55 % 1014,1 hPa 0,0 l/m² 0 min 0 W/m² 6,4 km/h (2 Bft) 97,37 %
09.04.2026 21:28 18,4 °C 17,2 °C 13,3 °C 54 % 1014,1 hPa 0,0 l/m² 0 min 0 W/m² 3,2 km/h (1 Bft) 95,74 %
09.04.2026 21:30 18,3 °C 17,2 °C 13,3 °C 54 % 1014,1 hPa 0,0 l/m² 0 min 0 W/m² 6,4 km/h (2 Bft) 95,74 %
09.04.2026 21:32 18,3 °C 17,2 °C 13,3 °C 54 % 1014,1 hPa 0,0 l/m² 0 min 0 W/m² 3,2 km/h (1 Bft) 98,00 %
09.04.2026 21:34 18,3 °C 17,2 °C 13,3 °C 54 % 1014,1 hPa 0,0 l/m² 0 min 0 W/m² 6,4 km/h (2 Bft) 97,87 %
09.04.2026 21:36 18,3 °C 17,2 °C 13,3 °C 54 % 1014,1 hPa 0,0 l/m² 0 min 0 W/m² 3,2 km/h (1 Bft) 97,87 %
09.04.2026 21:38 18,3 °C 17,2 °C 13,3 °C 54 % 1014,1 hPa 0,0 l/m² 0 min 0 W/m² 6,4 km/h (2 Bft) 93,62 %
09.04.2026 21:40 18,3 °C 17,2 °C 13,3 °C 54 % 1014,1 hPa 0,0 l/m² 0 min 0 W/m² 3,2 km/h (1 Bft) 97,83 %
09.04.2026 21:42 18,3 °C 17,2 °C 13,3 °C 54 % 1014,1 hPa 0,0 l/m² 0 min 0 W/m² 3,2 km/h (1 Bft) 97,87 %
09.04.2026 21:44 18,3 °C 17,2 °C 12,8 °C 54 % 1014,1 hPa 0,0 l/m² 0 min 0 W/m² 3,2 km/h (1 Bft) 95,74 %
09.04.2026 21:46 18,3 °C 17,2 °C 12,8 °C 54 % 1014,1 hPa 0,0 l/m² 0 min 0 W/m² 0,0 km/h (0 Bft) 95,74 %
09.04.2026 21:48 18,3 °C 17,2 °C 12,8 °C 54 % 1014,1 hPa 0,0 l/m² 0 min 0 W/m² 3,2 km/h (1 Bft) 97,87 %
09.04.2026 21:50 18,3 °C 17,2 °C 12,8 °C 54 % 1014,1 hPa 0,0 l/m² 0 min 0 W/m² 0,0 km/h (0 Bft) 97,87 %
09.04.2026 21:52 18,3 °C 17,2 °C 12,8 °C 54 % 1014,1 hPa 0,0 l/m² 0 min 0 W/m² 3,2 km/h (1 Bft) 98,00 %
09.04.2026 21:54 18,2 °C 17,2 °C 12,8 °C 54 % 1014,1 hPa 0,0 l/m² 0 min 0 W/m² 6,4 km/h (2 Bft) 97,87 %
09.04.2026 21:56 18,2 °C 17,2 °C 12,8 °C 55 % 1014,0 hPa 0,0 l/m² 0 min 0 W/m² 6,4 km/h (2 Bft) 97,83 %
09.04.2026 21:58 18,2 °C 17,2 °C 12,8 °C 55 % 1014,0 hPa 0,0 l/m² 0 min 0 W/m² 3,2 km/h (1 Bft) 93,62 %
09.04.2026 22:00 18,2 °C 17,2 °C 12,8 °C 55 % 1013,9 hPa 0,0 l/m² 0 min 0 W/m² 3,2 km/h (1 Bft) 95,74 %
09.04.2026 22:02 18,2 °C 17,2 °C 12,8 °C 55 % 1014,0 hPa 0,0 l/m² 0 min 0 W/m² 3,2 km/h (1 Bft) 97,87 %
09.04.2026 22:04 18,2 °C 17,2 °C 12,8 °C 55 % 1014,0 hPa 0,0 l/m² 0 min 0 W/m² 3,2 km/h (1 Bft) 97,87 %
09.04.2026 22:06 18,2 °C 17,2 °C 12,8 °C 56 % 1014,0 hPa 0,0 l/m² 0 min 0 W/m² 3,2 km/h (1 Bft) 97,87 %
09.04.2026 22:08 18,2 °C 17,2 °C 12,8 °C 57 % 1014,1 hPa 0,0 l/m² 0 min 0 W/m² 0,0 km/h (0 Bft) 98,00 %
09.04.2026 22:10 18,2 °C 16,7 °C 12,8 °C 57 % 1014,0 hPa 0,0 l/m² 0 min 0 W/m² 3,2 km/h (1 Bft) 97,14 %
09.04.2026 22:12 18,2 °C 16,7 °C 12,2 °C 58 % 1014,0 hPa 0,0 l/m² 0 min 0 W/m² 3,2 km/h (1 Bft) 97,87 %
09.04.2026 22:14 18,2 °C 16,7 °C 11,7 °C 60 % 1014,0 hPa 0,0 l/m² 0 min 0 W/m² 3,2 km/h (1 Bft) 95,12 %
09.04.2026 22:16 18,2 °C 16,7 °C 11,7 °C 60 % 1014,0 hPa 0,0 l/m² 0 min 0 W/m² 6,4 km/h (2 Bft) 98,36 %
09.04.2026 22:18 18,2 °C 16,7 °C 11,7 °C 60 % 1013,9 hPa 0,0 l/m² 0 min 0 W/m² 3,2 km/h (1 Bft) 97,87 %
09.04.2026 22:20 18,1 °C 16,7 °C 12,2 °C 61 % 1013,9 hPa 0,0 l/m² 0 min 0 W/m² 6,4 km/h (2 Bft) 97,37 %
09.04.2026 22:22 18,1 °C 16,7 °C 12,2 °C 60 % 1013,9 hPa 0,0 l/m² 0 min 0 W/m² 6,4 km/h (2 Bft) 97,87 %
09.04.2026 22:24 18,0 °C 16,7 °C 12,2 °C 60 % 1013,9 hPa 0,0 l/m² 0 min 0 W/m² 9,7 km/h (2 Bft) 98,21 %
09.04.2026 22:26 17,9 °C 16,7 °C 12,2 °C 60 % 1014,0 hPa 0,0 l/m² 0 min 0 W/m² 6,4 km/h (2 Bft) 97,87 %
09.04.2026 22:28 17,9 °C 16,7 °C 12,2 °C 60 % 1014,0 hPa 0,0 l/m² 0 min 0 W/m² 6,4 km/h (2 Bft) 100,00 %
09.04.2026 22:30 17,8 °C 16,1 °C 12,2 °C 61 % 1014,0 hPa 0,0 l/m² 0 min 0 W/m² 6,4 km/h (2 Bft) 100,00 %
09.04.2026 22:32 17,8 °C 16,1 °C 12,2 °C 61 % 1014,0 hPa 0,0 l/m² 0 min 0 W/m² 6,4 km/h (2 Bft) 100,00 %
09.04.2026 22:34 17,8 °C 16,1 °C 12,2 °C 61 % 1014,0 hPa 0,0 l/m² 0 min 0 W/m² 6,4 km/h (2 Bft) 100,00 %
09.04.2026 22:36 17,7 °C 16,1 °C 12,2 °C 61 % 1014,0 hPa 0,0 l/m² 0 min 0 W/m² 6,4 km/h (2 Bft) 97,87 %
09.04.2026 22:38 17,7 °C 16,1 °C 12,2 °C 62 % 1014,0 hPa 0,0 l/m² 0 min 0 W/m² 3,2 km/h (1 Bft) 97,87 %
09.04.2026 22:40 17,6 °C 16,1 °C 12,2 °C 62 % 1013,9 hPa 0,0 l/m² 0 min 0 W/m² 3,2 km/h (1 Bft) 100,00 %
09.04.2026 22:42 17,6 °C 16,1 °C 12,2 °C 63 % 1013,9 hPa 0,0 l/m² 0 min 0 W/m² 6,4 km/h (2 Bft) 100,00 %
09.04.2026 22:44 17,6 °C 16,1 °C 12,2 °C 64 % 1014,0 hPa 0,0 l/m² 0 min 0 W/m² 3,2 km/h (1 Bft) 100,00 %
09.04.2026 22:46 17,5 °C 16,1 °C 12,2 °C 63 % 1013,9 hPa 0,0 l/m² 0 min 0 W/m² 3,2 km/h (1 Bft) 100,00 %
09.04.2026 22:48 17,5 °C 16,1 °C 12,2 °C 63 % 1013,8 hPa 0,0 l/m² 0 min 0 W/m² 6,4 km/h (2 Bft) 100,00 %
09.04.2026 22:50 17,4 °C 16,1 °C 12,2 °C 62 % 1013,8 hPa 0,0 l/m² 0 min 0 W/m² 6,4 km/h (2 Bft) 100,00 %
09.04.2026 22:52 17,4 °C 16,1 °C 12,2 °C 62 % 1013,8 hPa 0,0 l/m² 0 min 0 W/m² 9,7 km/h (2 Bft) 100,00 %
09.04.2026 22:54 17,4 °C 16,1 °C 12,2 °C 62 % 1013,9 hPa 0,0 l/m² 0 min 0 W/m² 9,7 km/h (2 Bft) 100,00 %
09.04.2026 22:56 17,3 °C 16,1 °C 12,2 °C 62 % 1013,9 hPa 0,0 l/m² 0 min 0 W/m² 12,9 km/h (3 Bft) 100,00 %
09.04.2026 22:58 17,3 °C 16,7 °C 12,2 °C 62 % 1013,9 hPa 0,0 l/m² 0 min 0 W/m² 6,4 km/h (2 Bft) 97,87 %
09.04.2026 23:00 17,3 °C 16,1 °C 11,7 °C 62 % 1014,0 hPa 0,0 l/m² 0 min 0 W/m² 9,7 km/h (2 Bft) 100,00 %
09.04.2026 23:02 17,3 °C 16,1 °C 10,6 °C 62 % 1014,0 hPa 0,0 l/m² 0 min 0 W/m² 9,7 km/h (2 Bft) 97,87 %
09.04.2026 23:04 17,3 °C 16,1 °C 10,0 °C 64 % 1014,0 hPa 0,0 l/m² 0 min 0 W/m² 9,7 km/h (2 Bft) 100,00 %
09.04.2026 23:06 17,3 °C 16,1 °C 9,4 °C 65 % 1014,1 hPa 0,0 l/m² 0 min 0 W/m² 12,9 km/h (3 Bft) 100,00 %
09.04.2026 23:08 17,2 °C 16,1 °C 8,9 °C 67 % 1014,1 hPa 0,0 l/m² 0 min 0 W/m² 16,1 km/h (3 Bft) 97,83 %
09.04.2026 23:10 17,2 °C 15,6 °C 8,9 °C 67 % 1014,0 hPa 0,0 l/m² 0 min 0 W/m² 6,4 km/h (2 Bft) 95,74 %
09.04.2026 23:12 17,2 °C 15,6 °C 8,9 °C 69 % 1013,9 hPa 0,0 l/m² 0 min 0 W/m² 3,2 km/h (1 Bft) 98,00 %
09.04.2026 23:14 17,1 °C 15,6 °C 8,9 °C 69 % 1013,9 hPa 0,0 l/m² 0 min 0 W/m² 6,4 km/h (2 Bft) 97,87 %
09.04.2026 23:16 17,1 °C 15,6 °C 8,9 °C 70 % 1013,9 hPa 0,2 l/m² 0 min 0 W/m² 3,2 km/h (1 Bft) 97,87 %
09.04.2026 23:18 17,1 °C 15,6 °C 8,9 °C 70 % 1013,8 hPa 0,0 l/m² 0 min 0 W/m² 6,4 km/h (2 Bft) 95,74 %
09.04.2026 23:20 17,0 °C 15,6 °C 8,9 °C 70 % 1013,6 hPa 0,0 l/m² 0 min 0 W/m² 6,4 km/h (2 Bft) 93,62 %
09.04.2026 23:22 17,0 °C 15,6 °C 8,9 °C 70 % 1013,6 hPa 0,0 l/m² 0 min 0 W/m² 3,2 km/h (1 Bft) 95,74 %
09.04.2026 23:24 16,9 °C 15,6 °C 8,9 °C 70 % 1013,5 hPa 0,0 l/m² 0 min 0 W/m² 6,4 km/h (2 Bft) 93,62 %
09.04.2026 23:26 16,9 °C 15,6 °C 8,9 °C 70 % 1013,5 hPa 0,0 l/m² 0 min 0 W/m² 6,4 km/h (2 Bft) 95,65 %
09.04.2026 23:28 16,9 °C 15,6 °C 8,9 °C 70 % 1013,5 hPa 0,0 l/m² 0 min 0 W/m² 0,0 km/h (0 Bft) 93,62 %
09.04.2026 23:30 16,8 °C 15,0 °C 8,9 °C 71 % 1013,5 hPa 0,0 l/m² 0 min 0 W/m² 0,0 km/h (0 Bft) 95,74 %
09.04.2026 23:32 16,8 °C 15,0 °C 8,9 °C 71 % 1013,5 hPa 0,0 l/m² 0 min 0 W/m² 0,0 km/h (0 Bft) 95,74 %
09.04.2026 23:34 16,8 °C 15,0 °C 8,9 °C 72 % 1013,6 hPa 0,0 l/m² 0 min 0 W/m² 0,0 km/h (0 Bft) 93,62 %
09.04.2026 23:36 16,7 °C 15,0 °C 8,9 °C 72 % 1013,5 hPa 0,0 l/m² 0 min 0 W/m² 0,0 km/h (0 Bft) 95,74 %
09.04.2026 23:38 16,7 °C 15,0 °C 8,9 °C 72 % 1013,4 hPa 0,0 l/m² 0 min 0 W/m² 0,0 km/h (0 Bft) 97,87 %
09.04.2026 23:40 16,7 °C 15,0 °C 8,9 °C 72 % 1013,4 hPa 0,0 l/m² 0 min 0 W/m² 3,2 km/h (1 Bft) 97,87 %
09.04.2026 23:42 16,6 °C 15,0 °C 8,9 °C 73 % 1013,4 hPa 0,0 l/m² 0 min 0 W/m² 6,4 km/h (2 Bft) 95,65 %
09.04.2026 23:44 16,6 °C 15,0 °C 8,9 °C 73 % 1013,3 hPa 0,0 l/m² 0 min 0 W/m² 6,4 km/h (2 Bft) 97,87 %
09.04.2026 23:46 16,6 °C 15,0 °C 8,9 °C 73 % 1013,3 hPa 0,0 l/m² 0 min 0 W/m² 3,2 km/h (1 Bft) 97,87 %
09.04.2026 23:48 16,5 °C 15,0 °C 8,9 °C 73 % 1013,3 hPa 0,0 l/m² 0 min 0 W/m² 3,2 km/h (1 Bft) 97,87 %
09.04.2026 23:50 16,5 °C 15,0 °C 9,4 °C 73 % 1013,3 hPa 0,0 l/m² 0 min 0 W/m² 3,2 km/h (1 Bft) 95,74 %
09.04.2026 23:52 16,4 °C 15,0 °C 9,4 °C 73 % 1013,3 hPa 0,0 l/m² 0 min 0 W/m² 0,0 km/h (0 Bft) 97,87 %
09.04.2026 23:54 16,4 °C 15,0 °C 9,4 °C 73 % 1013,3 hPa 0,0 l/m² 0 min 0 W/m² 6,4 km/h (2 Bft) 96,00 %
09.04.2026 23:56 16,3 °C 15,0 °C 9,4 °C 73 % 1013,2 hPa 0,0 l/m² 0 min 0 W/m² 3,2 km/h (1 Bft) 95,65 %
09.04.2026 23:58 16,3 °C 15,0 °C 9,4 °C 74 % 1013,3 hPa 0,0 l/m² 0 min 0 W/m² 0,0 km/h (0 Bft) 95,74 %
_ Min-Zeit 07:20 01:30 05:18 15:18 23:56 - - - 00:00 07:08
Minimum _ 8,7 °C 7,8 °C 4,4 °C 40 % 1013,2 hPa - - - 0,0 km/h (0 Bft) 50,00 %
_ Max-Zeit 15:20 13:54 13:32 23:58 00:04 23:16 09:02 13:54 08:40 00:08
Maximum _ 23,6 °C 29,4 °C 21,7 °C 74 % 1022,9 hPa 0,2 l/m² 2 min 850 W/m² 25,7 km/h
S-SO (4 Bft)
100,00 %
Durchschnitt _ 15,6 °C 15,9 °C 11,2 °C 56 % 1018,6 hPa #0,2 l/m² #6:22 h 305 W/m² 8,8 km/h (2 Bft) 97,30 %
© 2026 W. Hausmann